     2              OBSERVATION DATA    GPS                 RINEX VERSION / TYPE
teqc 1998Mar9 19980522 19:18:42UTC                          PGM / RUN BY / DATE
                                                            COMMENT
Original Marker Name: SOAP                                  COMMENT
Campaign Name: Landers 1997-1998                            COMMENT
4-Character Station Name: SOAP                              COMMENT
6-Character Antenna Code: DMRCHT                            COMMENT
Vertical Measurement Point: BCR                             COMMENT
Vertical Offset to Rinex Ref. Point: 0.0349                 COMMENT
Radial Measurement Point: ECF                               COMMENT
Radial Offset to Rinex Ref. Point: 0.1896                   COMMENT
Antenna Height from Field Measurement: 1.1700 m             COMMENT
Additional Antenna Identification Info.:                    COMMENT
Turborogue and Ashtech Choke Ring                           COMMENT
Original XYZ: 0.0000 0.0000 0.0000                          COMMENT
New XYZ position is based on association with SCEC monument COMMENT
E1F2P0X2+0011. Position of that monument is believed to be  COMMENT
valid to within 1 m horizontally; vertical accuracy         COMMENT
should be no worse than 3-times this value.                 COMMENT
                                                            COMMENT
Revised Rinex header created by UCSD GPS archive for        COMMENT
GSAC on 14-Apr-1999 (1999:104) 03:28:02 GMT                 COMMENT
For assistance contact dagnew@ucsd.edu or hjohnson@ucsd.edu COMMENT
                                                            COMMENT
SOAP 1990                                                   MARKER NAME
MSM UNIV CALIF LOS ANGELES                                  OBSERVER / AGENCY
148 ASHTECH Z12-XII3 1F50                                   REC # / TYPE / VERS
768 DORNE-MARGOL. TYPE T                                    ANT # / TYPE
 -2376019.0000 -4667070.0000  3629502.0000                  APPROX POSITION XYZ
        1.1196        0.0000        0.0000                  ANTENNA: DELTA H/E/N
     1     1     0                                          WAVELENGTH FACT L1/2
     7    C1    L1    L2    P1    P2    S1    S2            # / TYPES OF OBSERV
     0                                                      INTERVAL
  1998     1    23    22     8    0.000000                  TIME OF FIRST OBS
  1998     1    23    23    58   60.000000                  TIME OF LAST OBS
     0                                                      # OF SATELLITES
                                                            END OF HEADER
 98  1 23 22  8  0.0000000  0  7G19G15G27G26G 2G 7G13
  22303714.804       30531.63249     22360.24346  22303714.660    22303721.772
       226.000         180.000
  23692862.905    23692868.039                                    23692886.638
       204.000          74.000
  20216810.793     -149538.96349   -110978.43748  20216810.553    20216815.928
       243.000         214.000
  23464751.645     -348115.59149   -258100.68246  23464752.780    23464759.145
       217.000         164.000
  21220922.435     -204421.63549   -139084.68248  21220922.131    21220927.970
       245.000         215.000
  21134769.703     -372704.61049   -269810.81247  21134768.884    21134775.369
       240.000         206.000
  21713488.488       56327.65249     41175.21447  21713488.425    21713493.580
       236.000         189.000
 98  1 23 22  8 30.0000000  0  7G19G15G27G26G 2G 7G13
  22305912.162       42069.20849     31350.54146  22305911.119    22305917.435
       227.000         180.000
  23673823.161    23673827.950                                    23673942.630
       204.000          74.000
  20206896.859     -201639.04949   -151575.89748  20206896.387    20206901.572
       243.000         214.000
  23441420.688     -470716.52549   -353633.82446  23441422.121    23441426.450
       218.000         166.000
  21207312.679     -275941.33649   -194814.28748  21207312.213    21207317.995
       245.000         215.000
  21110354.487     -501007.28349   -369786.89347  21110353.786    21110359.968
       241.000         206.000
  21717184.999       75758.06749     56315.76247  21717186.305    21717190.949
       234.000         189.000
 98  1 23 22  9  0.0000000  0  7G19G15G27G26G 2G 7G13
  22308188.515       54035.31349     40674.76646  22308188.492    22308193.996
       227.000         179.000
  23654896.839    23654903.011                                    23654901.050
       206.000          74.000
  20197098.386     -253129.53449   -191698.34848  20197098.060    20197103.276
       243.000         215.000
  23418208.283     -592701.01949   -448686.61646  23418209.101    23418215.791
       220.000         167.000
  21193765.389     -347132.91149   -250288.21148  21193765.042    21193770.774
       245.000         215.000
  21086051.274     -628721.06049   -469304.08847  21086050.841    21086056.876
       241.000         207.000
  21720979.731       95697.75349     71853.14647  21720980.928    21720985.598
       235.000         189.000
 98  1 23 22  9 30.0000000  0  7G19G15G27G26G 2G 7G13
  22310564.502       66522.12149     50404.72046  22310564.138    22310570.438
       226.000         179.000
  23636110.123     -184985.14344                  23636109.952    23636118.482
       209.000         123.000
  20187437.354     -303898.38449   -231258.48748  20187437.098    20187442.360
       243.000         215.000
  23395126.925     -713995.57649   -543201.80046  23395127.960    23395133.574
       222.000         167.000
  21180298.535     -417901.65749   -305432.66648  21180298.275    21180303.941
       245.000         215.000
  21061879.501     -755744.64049   -568283.46247  21061879.114    21061885.240
       241.000         207.000
  21724885.976      116224.22749     87847.77847  21724886.654    21724891.455
       235.000         188.000
 98  1 23 22 10  0.0000000  0  7G19G15G27G26G 2G 7G13
  22313051.243       79590.54349     60587.88046  22313050.886    22313056.897
       226.000         178.000
  23617474.752     -673421.05049   -261293.71545  23617473.743    23617482.661
       203.000         142.000
  20177922.829     -353897.47849   -270218.81248  20177922.765    20177927.838
       243.000         215.000
  23372184.849     -834557.96949   -637146.48146  23372185.203    23372190.672
       221.000         168.000
  21166924.523     -488182.75249   -360197.13248  21166924.293    21166929.909
       245.000         215.000
  21037849.890     -882021.52449   -666680.99547  21037849.340    21037855.525
       241.000         207.000
  21728911.903      137380.13949    104332.87547  21728912.387    21728917.361
       235.000         188.000
 98  1 23 22 10 30.0000000  0  7G19G15G27G26G 2G 7G13
  22315667.080       93337.30749     71299.61946  22315666.845    22315673.270
       225.000         178.000
  23599007.026     -770469.75049   -336916.04345  23599006.558    23599013.851
       207.000         145.000
  20168571.842     -403037.11149   -308509.43548  20168571.878    20168577.126
       243.000         215.000
  23349396.829     -954309.89949   -730459.63146  23349397.678    23349403.747
       221.000         167.000
  21153658.647     -557895.80749   -414518.98248  21153658.537    21153664.071
       245.000         215.000
  21013980.311    -1007457.01449   -764422.89647  21013979.984    21013986.236
       241.000         208.000
  21733071.910      159240.51349    121366.90346  21733072.547    21733077.368
       235.000         187.000
 98  1 23 22 11  0.0000000  0  7G19G15G27G26G 2G 7G13
  22318419.158      107799.58949     82568.91946  22318419.420    22318425.548
       225.000         177.000
  23580713.570     -866603.25449   -411825.24045  23580712.982    23580721.035
       207.000         145.000
  20159395.123     -451261.30249   -346086.72348  20159395.051    20159400.269
       243.000         215.000
  23326768.752    -1073221.41049   -823117.90646  23326769.494    23326774.657
       221.000         168.000
  21140504.412     -627021.84949   -468383.41948  21140504.213    21140509.888
       245.000         215.000
  20990277.021    -1132018.64049   -861483.86047  20990276.474    20990282.674
       241.000         208.000
  21737371.794      181836.05549    138973.78746  21737372.530    21737376.960
       235.000         187.000
 98  1 23 22 11 29.9990000  0  7G19G15G27G26G 2G 7G13
  22321314.071      123012.79449     94423.33646  22321313.826    22321320.652
       227.000         177.000
  23562597.884     -961802.01949   -486006.07145  23562597.753    23562604.762
       208.000         146.000
  20150395.704     -498553.52449   -382937.80348  20150395.671    20150400.890
       243.000         215.000
  23304308.058    -1191253.03749   -915090.55246  23304309.103    23304313.974
       221.000         168.000
  21127465.717     -695540.76649   -521774.77048  21127465.310    21127470.879
       245.000         215.000
  20966741.348    -1255699.17049   -957858.25347  20966740.578    20966746.781
       241.000         208.000
  21741816.799      205194.25949    157174.95846  21741817.343    21741822.422
       234.000         187.000
 98  1 23 22 11 59.9990000  0  7G19G15G27G26G 2G 7G13
  22324366.897      139055.44049    106924.07846  22324367.062    22324372.782
       225.000         177.000
  23544671.287    -1056006.75249   -559412.33745  23544671.123    23544678.072
       209.000         147.000
  20141582.751     -544865.95149   -419025.41248  20141582.553    20141587.903
       243.000         215.000
  23282031.493    -1308317.37049  -1006309.47346  23282032.065    23282039.085
       223.000         168.000
  21114555.284     -763385.61749   -574640.88448  21114554.598    21114560.402
       245.000         215.000
  20943383.718    -1378444.11849  -1053503.62247  20943383.208    20943389.302
       241.000         209.000
  21746421.881      229393.62549    176031.57046  21746422.995    21746426.979
       233.000         187.000
 98  1 23 22 12 29.9990000  0  7G19G15G27G26G 2G 7G13
  22327588.092      155982.59849    120114.05846  22327588.512    22327594.914
       227.000         176.000
  23526944.399    -1149163.21949   -632001.73045  23526943.466    23526951.803
       209.000         147.000
  20132968.078     -590136.27349   -454300.99148  20132968.136    20132973.360
       245.000         215.000
  23259950.866    -1424351.65849  -1096725.77146  23259951.661    23259956.259
       218.000         167.000
  21101781.162     -830514.07749   -626948.78448  21101780.891    21101786.714
       246.000         216.000
  20920213.139    -1500206.19449  -1148383.12247  20920212.938    20920218.807
       241.000         208.000
  21751198.171      254492.94049    195589.45246  21751198.329    21751203.256
       233.000         186.000
 98  1 23 22 12 59.9990000  0  7G19G15G27G26G 2G 7G13
  22330981.080      173812.56649    134007.48346  22330981.653    22330987.288
       225.000         177.000
  23509421.763    -1241246.26349   -703755.06845  23509421.676    23509428.430
       215.000         153.000
  20124556.048     -634341.92949   -488746.95648  20124555.930    20124561.099
       242.000         214.000
  23238073.235    -1539319.38149  -1186310.95346  23238073.466    23238079.664
       219.000         167.000
  21089148.251     -896900.74849   -678678.64548  21089147.967    21089153.521
       246.000         216.000
  20897233.157    -1620966.75249  -1242482.20847  20897232.677    20897238.788
       240.000         209.000
  21756150.288      280516.25649    215867.32046  21756150.960    21756155.831
       235.000         186.000
 98  1 23 22 13 29.9990000  0  7G19G15G27G26G 2G 7G13
  22334560.822      192624.07249    148665.80046  22334560.396    22334567.180
       225.000         176.000
  23492118.911    -1332174.77049   -774608.61545  23492119.424    23492126.117
       210.000         150.000
  20116356.233     -677432.21949   -522323.80348  20116356.156    20116361.316
       243.000         214.000
  23216416.448    -1653126.12549  -1274991.49846  23216416.579    23216422.809
       220.000         167.000
  21076672.384     -962461.96049   -729765.28648  21076672.104    21076677.810
       245.000         216.000
  20874458.705    -1740647.25449  -1335739.69947  20874458.193    20874464.418
       241.000         208.000
  21761290.905      307530.13349    236917.06946  21761291.501    21761296.411
       233.000         185.000
 98  1 23 22 13 59.9990000  0  7G19G15G27G26G 2G 7G13
  22338330.929      212435.98149    164103.61346  22338331.155    22338337.799
       225.000         176.000
  23475042.779    -1421910.72749   -844532.67845  23475042.946    23475050.211
       210.000         151.000
  20108374.054     -719378.98549   -555009.59248  20108374.062    20108379.247
       243.000         214.000
  23194986.213    -1765742.63549  -1362744.57346  23194986.575    23194992.707
       220.000         168.000
  21064356.701    -1027181.41649   -780196.02348  21064356.390    21064362.196
       246.000         216.000
  20851898.880    -1859199.83549  -1428118.29347  20851898.241    20851904.675
       241.000         209.000
  21766623.821      335554.57649    258754.25646  21766624.360    21766628.875
       233.000         185.000
 98  1 23 22 14 29.9990000  0  7G19G15G27G26G 2G 7G13
  22342302.746      233307.90249    180367.41346  22342303.105    22342309.861
       226.000         176.000
  23458207.664    -1510381.11949   -913470.60745  23458207.261    23458213.315
       214.000         151.000
  20100627.087     -760089.57649   -586732.13148  20100627.065    20100632.166
       243.000         214.000
  23173794.495    -1877105.62149  -1449520.88846  23173794.516    23173801.208
       219.000         168.000
  21052212.938    -1090997.33949   -829922.71048  21052212.666    21052218.484
       245.000         216.000
  20829568.717    -1976545.35049  -1519556.31847  20829568.080    20829574.331
       241.000         209.000
  21772161.237      364653.76749    281428.92046  21772161.946    21772166.762
       233.000         185.000
 98  1 23 22 14 59.9990000  0  7G19G15G27G26G 2G 7G13
  22346475.330      255234.96549    197453.41246  22346475.917    22346481.776
       227.000         175.000
  23441615.381    -1597574.80449   -981413.73345  23441615.337    23441622.206
       213.000         153.000
  20093117.769     -799551.38949   -617481.59348  20093117.834    20093122.927
       243.000         214.000
  23152846.101    -1987189.69149  -1535300.63246  23152846.308    23152852.264
       220.000         168.000
  21040244.738    -1153890.88549   -878930.65648  21040244.442    21040250.100
       245.000         216.000
  20807470.061    -2092674.22749  -1610046.31347  20807469.629    20807475.887
       241.000         209.000
  21777901.564      394819.26249    304934.46546  21777902.042    21777906.907
       233.000         185.000
 98  1 23 22 15 29.9990000  0  7G19G15G27G26G 2G 7G13
  22350851.497      278231.42149    215372.69846  22350851.777    22350858.352
       225.000         175.000
  23425271.440    -1683463.17049  -1048339.69145  23425269.693    23425277.248
       212.000         148.000
  20085849.396     -837747.18749   -647244.55048  20085849.336    20085854.505
       244.000         214.000
  23132144.997    -2095974.92949  -1620068.31346  23132144.590    23132151.856
       220.000         168.000
  21028457.674    -1215832.43449   -927196.77348  21028457.352    21028462.872
       245.000         216.000
  20785607.788    -2207561.44549  -1699568.78547  20785607.264    20785613.470
       241.000         210.000
  21783848.822      426072.05649    329287.26246  21783849.385    21783854.095
       234.000         185.000
 98  1 23 22 15 59.9990000  0  7G19G15G27G26G 2G 7G13
  22355431.686      302300.42849    234127.77246  22355431.017    22355438.008
       217.000         170.000
  23409178.559    -1768031.53149  -1114237.52644  23409179.982    23409182.348
       200.000         131.000
  20078828.455     -874642.61449   -675994.23748  20078828.286    20078833.388
       247.000         216.000
  23111689.059    -2203471.48449  -1703831.84646  23111688.941    23111695.028
       219.000         168.000
  21016853.629    -1276812.40149   -974713.62548  21016853.315    21016858.944
       245.000         216.000
  20763983.784    -2321196.47049  -1788115.55347  20763983.323    20763989.578
       242.000         210.000
  21790006.519      458430.77549    354501.81046  21790007.062    21790011.840
       234.000         183.000
 98  1 23 22 16 29.9990000  0  7G19G15G27G26G 2G 7G13
  22360216.720      327445.74549    253721.46546  22360216.484    22360222.797
       227.000         174.000
  23393335.227    -1851288.39649  -1179112.84045  23393334.452    23393341.084
       218.000         148.000
  20072054.647     -910239.12449   -703731.75548  20072054.686    20072059.693
       243.000         214.000
  23091475.419    -2309694.58349  -1786603.04645  23091474.805    23091482.002
       219.000         162.000
  21005434.890    -1336818.40749  -1021471.55348  21005434.670    21005440.082
       249.000         216.000
  20742597.722    -2433580.83949  -1875687.72347  20742597.269    20742603.563
       240.000         209.000
  21796374.514      491894.57549    380577.46846  21796375.313    21796379.703
       219.000         177.000
 98  1 23 22 16 59.9990000  0  7G19G15G27G26G 2G 7G13
  22365195.397      353608.76949    274108.21746  22365196.397    22365201.858
       225.000         173.000
  23377731.135    -1933288.25149  -1243008.84445  23377728.785    23377737.774
       207.000         151.000
  20065509.965     -944631.90049   -730531.32748  20065509.947    20065515.142
       245.000         213.000
  23071491.477    -2414710.71949  -1868433.73646  23071491.389    23071498.143
       218.000         167.000
  20994191.111    -1395904.92549  -1067512.96748  20994190.684    20994196.317
       246.000         216.000
  20721437.792    -2544776.97649  -1962334.03347  20721437.437    20721443.524
       241.000         210.000
  21802943.426      526413.88449    407475.59646  21802944.486    21802948.600
       232.000         181.000
 98  1 23 22 17 29.9990000  0  7G19G15G27G26G 2G 7G13
  22370360.807      380753.14549    295259.66346  22370361.731    22370368.052
       229.000         172.000
  23362357.691    -2014075.44349  -1305959.61145  23362357.377    23362363.774
       213.000         149.000
  20059183.377     -977878.28749   -756437.58047  20059183.486    20059188.604
       243.000         209.000
  23051723.570    -2518591.72749  -1949379.96846  23051723.104    23051729.844
       223.000         167.000
  20983113.191    -1454119.98649  -1112875.32847  20983112.813    20983118.540
       244.000         210.000
  20700498.350    -2654814.52549  -2048077.54447  20700497.864    20700504.081
       241.000         209.000
  21809707.341      561958.56749    435172.71746  21809708.373    21809713.296
       234.000         181.000
 98  1 23 22 17 59.9990000  0  7G19G15G27G26G 2G 7G13
  22375698.193      408800.84649    317114.98546  22375698.876    22375704.672
       224.000         172.000
  23347198.001    -2093738.60449  -1368034.76945  23347197.142    23347204.101
       211.000         153.000
  20053058.784    -1010063.25749   -781516.79247  20053058.756    20053063.886
       244.000         212.000
  23032156.696    -2621415.82549  -2029502.57446  23032156.940    23032163.197
       221.000         168.000
  20972185.644    -1511544.56949  -1157621.74748  20972185.078    20972190.875
       245.000         215.000
  20679762.760    -2763780.82549  -2132986.31747  20679762.209    20679768.211
       242.000         210.000
  21816650.666      598445.72549    463604.24546  21816651.177    21816656.235
       231.000         182.000
 98  1 23 22 18 29.9990000  0  7G19G15G27G26G 2G 7G13
  22381193.717      437679.86549    339618.10246  22381193.892    22381199.204
       224.000         172.000
  23332239.967    -2172342.27549  -1429284.28945  23332240.196    23332246.209
       216.000         155.000
  20047120.062    -1041271.48849   -805834.89148  20047120.018    20047125.143
       244.000         213.000
  23012782.829    -2723225.85049  -2108835.01346  23012782.852    23012788.532
       221.000         168.000
  20961397.879    -1568234.55249  -1201795.74348  20961397.526    20961403.259
       246.000         216.000
  20659218.239    -2871742.93649  -2217112.60847  20659217.851    20659223.759
       242.000         211.000
  21823759.865      635804.71649    492715.10446  21823760.545    21823765.110
       232.000         182.000
 98  1 23 22 18 59.9990000  0  7G19G15G27G26G 2G 7G13
  22386832.229      467310.07949    362706.55746  22386832.448    22386838.469
       224.000         172.000
  23317469.934    -2249960.20949  -1489765.71945  23317469.632    23317475.893
       214.000         156.000
  20041353.800    -1071573.49149   -829446.83848  20041353.750    20041358.870
       245.000         213.000
  22993591.176    -2824078.34949  -2187421.34746  22993590.888    22993598.024
       221.000         168.000
  20950735.522    -1624265.42049  -1245456.14748  20950735.168    20950740.619
       246.000         216.000
  20638848.096    -2978788.68249  -2300524.84647  20638847.733    20638853.613
       242.000         211.000
  21831019.224      673952.94449    522440.97946  21831019.779    21831024.751
       231.000         181.000
 98  1 23 22 19 29.9990000  0  7G19G15G27G26G 2G 7G13
  22392595.055      497594.13749    386304.48746  22392595.089    22392601.838
       223.000         171.000
  23302868.560    -2326689.10049  -1549554.33945  23302866.891    23302874.691
       213.000         155.000
  20035748.574    -1101029.42749   -852399.51248  20035748.590    20035753.652
       245.000         213.000
  22974565.821    -2924057.41849  -2265327.07746  22974566.299    22974572.205
       221.000         168.000
  20940178.756    -1679741.75549  -1288684.44548  20940178.336    20940184.112
       246.000         216.000
  20618632.953    -3085020.21249  -2383302.63547  20618632.458    20618638.336
       243.000         212.000
  21838404.781      712763.95849    552683.28846  21838405.227    21838410.396
       231.000         182.000
 98  1 23 22 19 59.9990000  0  7G19G15G27G26G 2G 7G13
  22398471.260      528473.56149    410366.35446  22398471.861    22398477.658
       225.000         171.000
  23288425.829    -2402585.17349  -1608694.03045  23288425.169    23288432.858
       214.000         156.000
  20030296.861    -1129678.40649   -874723.38348  20030296.894    20030301.958
       244.000         214.000
  22955698.975    -3023203.47949  -2342583.72046  22955699.880    22955705.289
       222.000         168.000
  20929716.822    -1734719.68749  -1331524.37948  20929716.329    20929721.897
       245.000         216.000
  20598559.441    -3190507.05349  -2465500.14047  20598558.924    20598564.869
       243.000         212.000
  21845900.035      752151.58349    583374.91946  21845900.698    21845905.509
       231.000         182.000
 98  1 23 22 20 29.9990000  0  7G19G15G27G26G 2G 7G13
  22404450.116      559892.58149    434848.67646  22404450.771    22404455.911
       222.000         170.000
  23274130.273    -2477709.18649  -1667232.08545  23274129.505    23274136.605
       217.000         157.000
  20024989.604    -1157568.31249   -896455.77348  20024989.638    20024994.814
       245.000         214.000
  22936977.847    -3121583.53849  -2419243.45846  22936978.230    22936983.695
       222.000         168.000
  20919335.751    -1789272.60349  -1374033.13448  20919335.445    20919341.000
       246.000         216.000
  20578618.896    -3295295.29349  -2547153.27847  20578618.319    20578624.512
       243.000         212.000
  21853491.190      792043.26249    614459.31546  21853492.342    21853497.173
       232.000         181.000
 98  1 23 22 20 59.9990000  0  7G19G15G27G26G 2G 7G13
  22410526.807      591825.86449    459731.72746  22410526.935    22410533.648
       222.000         169.000
  23259975.809    -2552089.94949  -1725191.02245  23259975.404    23259982.671
       214.000         156.000
  20019823.713    -1184715.44949   -917609.37748  20019823.644    20019828.816
       245.000         214.000
  22918393.110    -3219246.88549  -2495344.73846  22918392.897    22918399.716
       221.000         168.000
  20909024.588    -1843457.88949  -1416255.42048  20909024.174    20909029.737
       245.000         216.000
  20558806.473    -3399410.40249  -2628281.90247  20558806.085    20558811.950
       243.000         212.000
  21861170.198      832396.36449    645903.25846  21861170.507    21861175.559
       231.000         181.000
 98  1 23 22 21 29.9990000  0  7G19G15G27G26G 2G 7G13
  22416689.188      624209.08349    484965.37846  22416689.019    22416695.235
       222.000         169.000
  23245950.362    -2625793.43849  -1782622.21545  23245950.423    23245956.899
       217.000         157.000
  20014786.554    -1211185.86949   -938235.66648  20014786.412    20014791.589
       245.000         214.000
  22899928.678    -3316278.06549  -2570953.42646  22899929.159    22899935.668
       223.000         169.000
  20898770.186    -1897345.11549  -1458245.45048  20898769.593    20898775.426
       245.000         216.000
  20539112.101    -3502904.99349  -2708927.00147  20539111.519    20539117.435
       243.000         212.000
  21868925.722      873151.65149    677660.59446  21868926.257    21868930.382
       231.000         181.000
 98  1 23 22 21 59.9990000  0  7G19G15G27G26G 2G 7G13
  22422930.959      657009.77449    510524.32746  22422931.238    22422937.579
       222.000         169.000
  23232047.756    -2698853.67649  -1839552.21245  23232047.338    23232054.669
       219.000         159.000
  20009865.867    -1237044.41249   -958385.17548  20009865.618    20009870.796
       245.000         214.000
  22881576.748    -3412718.35949  -2646101.66846  22881577.454    22881582.601
       222.000         169.000
  20888566.913    -1950963.45249  -1500025.96148  20888566.516    20888572.376
       245.000         216.000
  20519531.788    -3605800.22749  -2789105.06647  20519531.144    20519537.140
       243.000         212.000
  21876755.839      914299.10249    709723.51646  21876756.657    21876761.370
       230.000         180.000
 98  1 23 22 22 29.9990000  0  7G19G15G27G26G 2G 7G13
  22429241.309      690170.91249    536364.15246  22429241.569    22429247.319
       221.000         168.000
  23218258.419    -2771317.00049  -1896017.09345  23218258.024    23218265.147
       213.000         160.000
  20005048.678    -1262359.09249   -978110.89548  20005048.703    20005053.674
       245.000         214.000
  22863328.397    -3508614.29949  -2720825.74546  22863328.817    22863333.642
       223.000         169.000
  20878402.695    -2004376.68249  -1541646.64948  20878402.383    20878408.036
       245.000         216.000
  20500055.668    -3708147.83249  -2868856.41547  20500055.247    20500061.029
       243.000         212.000
  21884654.406      955806.03049    742066.54846  21884654.959    21884659.790
       230.000         179.000
 98  1 23 22 22 59.9990000  0  7G19G15G27G26G 2G 7G13
  22435611.997      723648.85949    562450.83446  22435611.829    22435618.069
       222.000         168.000
  23204577.597    -2843209.40049  -1952037.09545  23204577.415    23204583.782
       213.000         160.000
  20000328.190    -1287165.33849   -997440.42848  20000327.931    20000333.282
       245.000         214.000
  22845179.191    -3603989.08349  -2795143.72246  22845178.812    22845184.967
       223.000         169.000
  20868272.696    -2057610.18949  -1583127.28948  20868272.396    20868278.118
       245.000         216.000
  20480674.045    -3809998.99949  -2948220.92048  20480673.545    20480679.257
       243.000         213.000
  21892616.396      997646.49849    774669.48546  21892617.656    21892621.992
       229.000         179.000
 98  1 23 22 23 29.9990000  0  7G19G15G27G26G 2G 7G13
  22442038.445      757419.60649    588765.66346  22442038.660    22442044.263
       222.000         168.000
  23191000.787    -2914555.86949  -2007631.73445  23191000.085    23191007.155
       217.000         161.000
  19995697.440    -1311499.89049  -1016402.41448  19995697.247    19995702.553
       244.000         213.000
  22827128.460    -3698846.16049  -2869058.29246  22827128.578    22827134.083
       223.000         170.000
  20858175.426    -2110671.77749  -1624473.96348  20858174.906    20858180.845
       245.000         216.000
  20461380.974    -3911384.54249  -3027222.60248  20461380.311    20461386.113
       243.000         213.000
  21900636.946     1039794.59249    807512.12246  21900637.194    21900642.823
       229.000         179.000
 98  1 23 22 23 59.9990000  0  7G19G15G27G26G 2G 7G13
  22448513.380      791445.69049    615279.46746  22448513.188    22448520.764
       220.000         168.000
  23177524.787    -2985373.17249  -2062814.04945  23177523.934    23177532.037
       215.000         161.000
  19991152.122    -1335385.59049  -1035014.64448  19991151.854    19991157.229
       244.000         213.000
  22809174.386    -3793195.62649  -2942577.33146  22809175.327    22809180.532
       224.000         170.000
  20848106.690    -2163583.26149  -1665703.67948  20848106.226    20848111.875
       245.000         216.000
  20442170.146    -4012337.67649  -3105887.34348  20442169.521    20442175.399
       243.000         213.000
  21908709.240     1082214.51149    840566.57446  21908709.826    21908714.739
       229.000         178.000
 98  1 23 22 24 29.9990000  0  7G19G15G27G26G 2G 7G13
  22455033.852      825710.82549    641979.53346  22455034.363    22455040.368
       221.000         168.000
  23164148.995    -3055663.34049  -2117585.62245  23164149.353    23164155.907
       214.000         161.000
  19986696.684    -1358799.03949  -1053258.88748  19986696.608    19986701.860
       245.000         213.000
  22791314.039    -3887052.56849  -3015712.58346  22791314.561    22791319.833
       223.000         171.000
  20838065.515    -2216349.80649  -1706820.44848  20838065.188    20838070.809
       246.000         216.000
  20423038.798    -4112873.42849  -3184226.85148  20423038.325    20423044.317
       243.000         213.000
  21916830.045     1124889.71949    873819.95846  21916830.184    21916835.485
       228.000         178.000
 98  1 23 22 24 59.9990000  0  7G19G15G27G26G 2G 7G13
  22461595.663      860193.16149    668848.85546  22461595.201    22461603.180
       221.000         169.000
  23150869.030    -3125451.00849  -2171965.60745  23150868.457    23150874.471
       215.000         160.000
  19982327.925    -1381757.06449  -1071148.25848  19982327.792    19982333.047
       244.000         213.000
  22773541.082    -3980450.08449  -3088489.83646  22773541.995    22773546.503
       223.000         172.000
  20828050.633    -2268978.62449  -1747829.90048  20828050.291    20828055.976
       245.000         216.000
  20403984.909    -4213002.44349  -3262249.41948  20403984.296    20403990.298
       243.000         213.000
  21924993.016     1167786.31349    907245.84446  21924993.473    21924998.969
       229.000         178.000
 98  1 23 22 25 29.9980000  0  7G19G15G27G26G 2G 7G13
  22468201.468      894906.93049    695898.51446  22468201.188    22468208.740
       221.000         169.000
  23137686.273    -3194726.77349  -2225946.74945  23137686.133    23137692.788
       218.000         159.000
  19978046.621    -1404255.53049  -1088679.52847  19978046.546    19978051.689
       245.000         212.000
  22755856.478    -4073383.27349  -3160905.27946  22755856.878    22755862.460
       223.000         172.000
  20818063.808    -2321459.79549  -1788724.30048  20818063.335    20818068.876
       246.000         216.000
  20385014.344    -4312693.21549  -3339930.49948  20385013.819    20385019.519
       243.000         213.000
  21933196.837     1210897.48849    940838.93646  21933196.994    21933202.529
       228.000         176.000
 98  1 23 22 25 59.9980000  0  7G19G15G27G26G 2G 7G13
  22474849.259      929840.91249    723119.75446  22474849.445    22474855.600
       220.000         168.000
  23124598.757    -3263502.43449  -2279538.19245  23124597.824    23124605.344
       214.000         159.000
  19973851.756    -1426299.90749  -1105856.96348  19973851.640    19973856.759
       244.000         213.000
  22738253.688    -4165886.42649  -3232985.62746  22738253.635    22738259.302
       222.000         172.000
  20808102.608    -2373805.82949  -1829513.39948  20808102.221    20808107.721
       246.000         216.000
  20366125.582    -4411954.07349  -3417276.58348  20366125.035    20366130.905
       243.000         213.000
  21941438.429     1254207.17649    974586.71546  21941439.697    21941444.492
       229.000         177.000
 98  1 23 22 26 29.9980000  0  7G19G15G27G26G 2G 7G13
  22481544.781      965026.20349    750536.83046  22481544.770    22481551.334
       220.000         167.000
  23111607.833    -3331769.65849  -2332733.43945  23111607.067    23111613.844
       216.000         159.000
  19969743.681    -1447887.91549  -1122678.78848  19969743.584    19969748.807
       245.000         213.000
  22720737.856    -4257932.78349  -3304710.04546  22720738.530    22720743.815
       223.000         172.000
  20798166.931    -2426018.22349  -1870198.36648  20798166.649    20798172.302
       245.000         216.000
  20347322.525    -4510764.87849  -3494271.97648  20347322.112    20347327.935
       243.000         213.000
  21949718.402     1297718.57149   1008491.67446  21949718.976    21949723.499
       229.000         177.000
 98  1 23 22 26 59.9980000  0  7G19G15G27G26G 2G 7G13
  22488286.997     1000456.70849    778144.97246  22488287.193    22488294.072
       219.000         167.000
  23098711.092    -3399543.39649  -2385544.14545  23098710.475    23098717.387
       218.000         159.000
  19965716.377    -1469051.53149  -1139169.91848  19965716.472    19965721.539
       244.000         213.000
  22703309.717    -4349518.19249  -3376075.25946  22703309.436    22703315.409
       224.000         172.000
  20788253.183    -2478115.50549  -1910793.63248  20788252.992    20788258.719
       246.000         216.000
  20328604.237    -4609130.20249  -3570920.24348  20328603.790    20328609.609
       243.000         214.000
  21958031.579     1341404.42149   1042532.57746  21958031.951    21958037.713
       228.000         177.000
 98  1 23 22 27 29.9980000  0  7G19G15G27G26G 2G 7G13
  22495080.820     1036158.39149    805964.44346  22495080.340    22495087.905
       219.000         167.000
  23085913.729    -3466793.41849  -2437946.75645  23085913.235    23085919.770
       215.000         159.000
  19961775.857    -1489759.23349  -1155305.79048  19961775.970    19961781.074
       244.000         213.000
  22685974.944    -4440612.69549  -3447057.95346  22685975.106    22685980.808
       223.000         173.000
  20778362.392    -2530092.16449  -1951294.91048  20778362.059    20778367.497
       246.000         216.000
  20309973.235    -4707036.70349  -3647210.98348  20309972.768    20309978.484
       244.000         214.000
  21966383.470     1385293.54449   1076731.85346  21966383.899    21966389.038
       229.000         176.000
 98  1 23 22 27 59.9980000  0  7G19G15G27G26G 2G 7G13
  22501920.652     1072101.59249    833972.08946  22501920.195    22501927.277
       219.000         167.000
  23073213.227    -3533533.69449  -2489952.15245  23073212.827    23073220.230
       215.000         159.000
  19957920.431    -1510019.75349  -1171093.21247  19957920.369    19957925.616
       244.000         212.000
  22668732.389    -4531222.84249  -3517663.23946  22668733.502    22668738.274
       223.000         172.000
  20768488.818    -2581978.08449  -1991725.48248  20768488.425    20768494.157
       246.000         216.000
  20291424.901    -4804508.69449  -3723163.14948  20291424.069    20291430.147
       244.000         214.000
  21974773.247     1429381.93549   1111086.41146  21974774.310    21974779.346
       228.000         176.000
 98  1 23 22 28 29.9980000  0  7G19G15G27G26G 2G 7G13
  22508812.107     1108316.21049    862191.23646  22508811.944    22508818.732
       220.000         167.000
  23060616.976    -3599726.73349  -2541531.12445  23060616.507    23060623.636
       215.000         158.000
  19954159.203    -1529785.17349  -1186494.83847  19954159.203    19954164.356
       244.000         212.000
  22651591.383    -4621299.25849  -3587852.62546  22651591.549    22651597.016
       224.000         172.000
  20758638.844    -2633740.31749  -2032059.67448  20758638.384    20758644.054
       246.000         216.000
  20272967.020    -4901505.13049  -3798744.75248  20272966.717    20272972.461
       243.000         214.000
  21983210.456     1473719.74749   1145635.32246  21983211.729    21983216.120
       228.000         176.000
 98  1 23 22 28 59.9980000  0  7G19G15G27G26G 2G 7G13
  22515740.335     1144723.94549    890560.85846  22515740.927    22515747.389
       219.000         167.000
  23048113.977    -3665430.81449  -2592729.08645  23048113.783    23048120.669
       220.000         159.000
  19950482.651    -1549105.66549  -1201549.77047  19950482.608    19950487.763
       244.000         212.000
  22634537.847    -4710915.93449  -3657683.76546  22634538.215    22634544.330
       223.000         173.000
  20748801.421    -2685436.21249  -2072342.17948  20748800.994    20748806.567
       246.000         216.000
  20254587.225    -4998091.76549  -3874007.03148  20254586.891    20254592.632
       243.000         214.000
  21991682.761     1518241.87749   1180327.86946  21991683.834    21991688.739
       227.000         175.000
 98  1 23 22 29 29.9980000  0  7G19G15G27G26G 2G 7G13
  22522707.298     1181335.42249    919089.24546  22522707.654    22522714.034
       220.000         167.000
  23035708.581    -3730622.50349  -2643527.78745  23035708.761    23035715.257
       218.000         159.000
  19946896.756    -1567949.79149  -1216233.50747  19946896.701    19946901.702
       244.000         212.000
  22617574.128    -4800060.57849  -3727147.09246  22617574.279    22617579.587
       223.000         173.000
  20738980.317    -2737046.31549  -2112557.83148  20738979.913    20738985.380
       246.000         216.000
  20236287.809    -5094255.81949  -3948940.02648  20236287.290    20236293.100
       244.000         214.000
  22000194.154     1562969.52849   1215180.55846  22000194.073    22000199.989
       226.000         175.000
 98  1 23 22 29 59.9980000  0  7G19G15G27G26G 2G 7G13
  22529714.371     1218157.40549    947781.65746  22529714.463    22529721.264
       219.000         167.000
  23023402.564    -3795291.22549  -2693918.96145  23023401.980    23023409.379
       219.000         159.000
  19943403.019    -1586309.49749  -1230539.77847  19943403.009    19943408.300
       244.000         212.000
  22600702.864    -4888719.56449  -3796231.98946  22600703.159    22600709.004
       223.000         173.000
  20729182.976    -2788531.78149  -2152676.36848  20729182.665    20729188.201
       246.000         216.000
  20218072.816    -5189976.20949  -4023527.31348  20218072.500    20218078.118
       244.000         214.000
  22008744.781     1607903.19849   1250193.77346  22008745.323    22008750.425
       226.000         174.000
 98  1 23 22 30 29.9980000  0  7G19G15G27G26G 2G 7G13
  22536762.800     1255196.84049    976643.52746  22536763.094    22536769.949
       220.000         167.000
  23011194.689    -3859444.13549  -2743908.22945  23011194.342    23011200.610
       216.000         158.000
  19939997.469    -1604205.78549  -1244484.94047  19939997.367    19940002.598
       244.000         212.000
  22583921.340    -4976907.06849  -3864949.48846  22583921.227    22583927.097
       223.000         173.000
  20719410.962    -2839884.09449  -2192691.14848  20719410.601    20719416.192
       246.000         216.000
  20199941.596    -5285256.25349  -4097771.47148  20199941.082    20199946.894
       243.000         214.000
  22017329.171     1653014.37649   1285345.30646  22017329.790    22017334.607
       228.000         174.000
 98  1 23 22 30 59.9980000  0  7G19G15G27G26G 2G 7G13
  22543852.426     1292452.99949   1005674.25546  22543851.926    22543859.777
       220.000         166.000
  22999084.609    -3923082.61749  -2793496.62045  22999083.926    22999091.129
       217.000         158.000
  19936677.619    -1621651.83649  -1258079.27347  19936677.735    19936682.805
       245.000         212.000
  22567228.491    -5064628.59549  -3933303.89246  22567228.783    22567234.465
       223.000         173.000
  20709663.491    -2891107.41249  -2232605.41148  20709663.029    20709668.653
       245.000         216.000
  20181890.875    -5380113.34649  -4171686.06048  20181890.338    20181896.207
       243.000         214.000
  22025944.214     1698286.54749   1320622.28946  22025944.926    22025949.351
       227.000         174.000
 98  1 23 22 31 29.9980000  0  7G19G15G27G26G 2G 7G13
  22550982.773     1329922.84749   1034871.50646  22550982.969    22550988.662
       219.000         166.000
  22987073.386    -3986201.94649  -2842680.49345  22987073.520    22987080.395
       214.000         158.000
  19933442.745    -1638651.41749  -1271325.70347  19933442.675    19933447.784
       244.000         212.000
  22550624.797    -5151881.44849  -4001293.09746  22550624.687    22550630.471
       224.000         173.000
  20699944.412    -2942181.47649  -2272403.37448  20699944.087    20699949.434
       245.000         216.000
  20163921.818    -5474541.29149  -4245266.24748  20163921.438    20163927.264
       244.000         214.000
  22034592.671     1743734.36549   1356036.14446  22034593.219    22034597.557
       226.000         174.000
 98  1 23 22 31 59.9980000  0  7G19G15G27G26G 2G 7G13
  22558158.407     1367630.50049   1064254.04646  22558158.532    22558164.347
       219.000         166.000
  22975164.969    -4048780.90549  -2891443.31445  22975164.834    22975172.002
       215.000         158.000
  19930292.469    -1655206.40649  -1284225.70047  19930292.276    19930297.572
       244.000         212.000
  22534115.747    -5238637.14449  -4068894.90546  22534116.436    22534121.937
       223.000         173.000
  20690258.799    -2993079.94949  -2312064.51448  20690258.482    20690263.921
       246.000         216.000
  20146039.396    -5568514.19649  -4318491.85948  20146038.937    20146044.803
       244.000         215.000
  22043279.049     1789381.04449   1391604.95646  22043280.095    22043285.738
       228.000         173.000
 98  1 23 22 32 29.9980000  0  7G19G15G27G26G 2G 7G13
  22565378.330     1405571.43949   1093818.37346  22565378.883    22565384.916
       220.000         166.000
  22963358.772    -4110822.02749  -2939787.02645  22963359.067    22963365.683
       218.000         158.000
  19927224.196    -1671330.39049  -1296789.84947  19927224.020    19927229.316
       244.000         212.000
  22517700.515    -5324899.70849  -4136112.44846  22517700.820    22517706.820
       223.000         173.000
  20680601.598    -3043828.90849  -2351609.14948  20680601.178    20680606.714
       246.000         216.000
  20128240.279    -5662049.04449  -4391376.12648  20128239.869    20128245.407
       244.000         215.000
  22052001.576     1835217.93049   1427321.97946  22052002.676    22052007.316
       228.000         173.000
 98  1 23 22 32 59.9980000  0  7G19G15G27G26G 2G 7G13
  22572646.249     1443764.28749   1123578.99746  22572646.842    22572653.566
       220.000         165.000
  22951660.265    -4172300.47149  -2987692.30645  22951660.116    22951666.305
       215.000         159.000
  19924242.811    -1686997.77049  -1308998.20347  19924242.614    19924247.950
       244.000         212.000
  22501383.134    -5410648.05549  -4202929.32246  22501383.177    22501388.484
       224.000         173.000
  20670977.392    -3094404.51449  -2391018.70348  20670977.120    20670982.748
       245.000         216.000
  20110527.393    -5755130.75049  -4463907.29448  20110526.872    20110532.653
       244.000         215.000
  22060766.566     1881278.04849   1463212.94546  22060767.618    22060772.735
       226.000         172.000
 98  1 23 22 33 29.9980000  0  7G19G15G27G26G 2G 7G13
  22579964.488     1482221.75449   1153545.82346  22579965.045    22579970.741
       220.000         164.000
  22940069.323    -4233210.27649  -3035154.47745  22940068.731    22940076.090
       217.000         158.000
  19921346.787    -1702216.51349  -1320856.96947  19921346.829    19921351.857
       244.000         212.000
  22485165.261    -5495873.31749  -4269338.58446  22485165.124    22485171.258
       223.000         174.000
  20661388.632    -3144793.64949  -2430282.95748  20661388.169    20661393.749
       246.000         216.000
  20092905.386    -5847734.91549  -4536066.35448  20092904.891    20092910.531
       244.000         215.000
  22069573.881     1927560.47249   1499277.13846  22069574.112    22069580.471
       226.000         172.000
 98  1 23 22 33 59.9980000  0  7G19G15G27G26G 2G 7G13
  22587331.746     1520936.52849   1183713.13446  22587332.175    22587337.934
       221.000         163.000
  22928581.643    -4293578.87349  -3082194.93145  22928581.673    22928587.880
       217.000         158.000
  19918531.289    -1717012.16449  -1332386.05247  19918531.118    19918536.110
       244.000         211.000
  22469043.480    -5580593.83449  -4335354.53846  22469044.354    22469049.275
       225.000         174.000
  20651827.903    -3195035.61749  -2469432.53148  20651827.397    20651832.977
       246.000         216.000
  20075370.309    -5939882.31649  -4607869.49048  20075369.881    20075375.453
       246.000         215.000
  22078414.412     1974017.53949   1535477.41246  22078414.841    22078421.308
       226.000         171.000
 98  1 23 22 34 29.9980000  0  7G19G15G27G26G 2G 7G13
  22594753.662     1559938.72749   1214104.41846  22594753.747    22594759.896
       219.000         163.000
  22917200.903    -4353383.95049  -3128796.28945  22917200.202    22917207.067
       215.000         157.000
  19915806.236    -1731332.35749  -1343544.64847  19915806.154    19915811.132
       244.000         211.000
  22453020.800    -5664793.37549  -4400964.55146  22453020.537    22453026.537
       223.000         174.000
  20642297.870    -3245116.34049  -2508456.46148  20642297.325    20642302.934
       246.000         216.000
  20057926.677    -6031549.16149  -4679298.16648  20057926.247    20057931.795
       246.000         215.000
  22087290.494     2020661.61649   1571823.41146  22087290.797    22087295.495
       226.000         171.000
 98  1 23 22 34 59.9980000  0  7G19G15G27G26G 2G 7G13
  22602231.832     1599236.59449   1244726.09845  22602231.381    22602239.731
       218.000         162.000
  22905930.262    -4412611.66649  -3174947.73845  22905930.284    22905936.328
       215.000         157.000
  19913178.415    -1745141.74049  -1354305.21147  19913178.353    19913183.366
       244.000         211.000
  22437100.390    -5748455.71049  -4466155.95546  22437100.598    22437105.923
       224.000         174.000
  20632802.486    -3295014.95649  -2547338.49048  20632801.968    20632807.319
       246.000         216.000
  20040578.969    -6122711.94449  -4750334.06648  20040578.516    20040584.209
       246.000         215.000
  22096204.996     2067507.58749   1608326.71446  22096206.385    22096208.989
       225.000         170.000
 98  1 23 22 35 29.9980000  0  7G19G15G27G26G 2G 7G13
  22609765.269     1638824.96149   1275574.14545  22609765.315    22609772.323
       218.000         161.000
  22894770.142    -4471257.45249  -3220645.74245  22894769.941    22894776.314
       217.000         157.000
  19910652.467    -1758415.71249  -1364648.56947  19910652.242    19910657.572
       244.000         211.000
  22421284.473    -5831569.12149  -4530919.62646  22421284.867    22421289.769
       224.000         174.000
  20623340.150    -3344739.97349  -2586085.24648  20623339.799    20623345.335
       245.000         216.000
  20023326.500    -6213373.91849  -4820979.72348  20023325.850    20023331.579
       246.000         215.000
  22105157.473     2114552.94649   1644985.40246  22105157.408    22105162.593
       225.000         170.000
 98  1 23 22 35 59.9980000  0  7G19G15G27G26G 2G 7G13
  22617349.832     1678681.87549   1306631.43345  22617349.795    22617356.361
       217.000         160.000
  22883721.382    -4529320.27249  -3265889.48745  22883721.359    22883727.314
       218.000         157.000
  19908233.034    -1771129.97249  -1374555.78647  19908233.127    19908238.114
       244.000         211.000
  22405570.599    -5914146.13549  -4595265.31946  22405570.766    22405576.969
       223.000         174.000
  20613909.333    -3394299.24749  -2624702.85548  20613908.988    20613914.481
       245.000         216.000
  20006165.858    -6303553.53649  -4891249.51748  20006165.370    20006171.008
       246.000         215.000
  22114148.012     2161798.23049   1681799.86446  22114149.713    22114154.566
       228.000         170.000
 98  1 23 22 36 29.9980000  0  7G19G15G27G26G 2G 7G13
  22624978.470     1718770.74249   1337869.46845  22624978.014    22624984.357
       217.000         159.000
  22872782.892    -4586802.89749  -3310681.13845  22872782.142    22872789.725
       217.000         158.000
  19905919.407    -1783288.31249  -1384029.82447  19905919.209    19905924.376
       244.000         211.000
  22389956.633    -5996197.86449  -4659201.71846  22389957.155    22389962.804
       225.000         174.000
  20604509.090    -3443697.79749  -2663195.22148  20604508.665    20604514.149
       245.000         216.000
  19989094.471    -6393264.38649  -4961154.04148  19989093.928    19989099.558
       246.000         215.000
  22123176.574     2209243.43649   1718770.12046  22123176.883    22123182.490
       225.000         169.000
 98  1 23 22 36 59.9980000  0  7G19G15G27G26G 2G 7G13
  22632650.610     1759087.51249   1369285.08945  22632650.722    22632657.323
       217.000         158.000
  22861957.344    -4643691.51549  -3355009.91045  22861957.146    22861963.301
       218.000         158.000
  19903708.915    -1794904.46349  -1393081.37347  19903708.749    19903713.929
       244.000         211.000
  22374445.919    -6077707.19249  -4722715.45946  22374446.973    22374452.060
       224.000         175.000
  20595142.935    -3492917.13949  -2701547.94748  20595142.490    20595148.016
       245.000         216.000
  19972114.052    -6482497.02649  -5030685.93148  19972113.234    19972118.814
       246.000         216.000
  22132246.608     2256906.49649   1755910.12246  22132247.794    22132251.756
       227.000         169.000
 98  1 23 22 37 29.9980000  0  7G19G15G27G26G 2G 7G13
  22640368.682     1799645.79149   1400888.90345  22640368.789    22640374.579
       216.000         158.000
  22851247.944    -4699970.57249  -3398863.70445  22851246.791    22851254.345
       213.000         157.000
  19901600.132    -1805986.17049  -1401716.47147  19901600.039    19901605.251
       243.000         211.000
  22359041.180    -6158659.41449  -4785795.08346  22359040.998    22359046.773
       224.000         175.000
  20585812.933    -3541946.56749  -2739752.68748  20585812.529    20585817.987
       246.000         216.000
  19955227.375    -6571236.98249  -5099833.90948  19955226.944    19955232.539
       246.000         216.000
  22141360.262     2304798.77749   1793228.74646  22141359.476    22141365.279
       224.000         168.000
 98  1 23 22 37 59.9980000  0  7G19G15G27G26G 2G 7G13
  22648136.264     1840464.79949   1432695.87645  22648135.422    22648142.684
       214.000         157.000
  22840656.541    -4755627.82349  -3442232.96645  22840654.674    22840662.471
       215.000         156.000
  19899591.670    -1816540.83349  -1409940.88847  19899591.489    19899596.712
       243.000         211.000
  22343744.276    -6239044.83949  -4848433.06146  22343744.867    22343750.194
       224.000         175.000
  20576521.317    -3590774.54849  -2777800.45848  20576520.941    20576526.300
       245.000         216.000
  19938441.574    -6659446.98449  -5168568.94348  19938441.264    19938446.670
       246.000         216.000
  22150518.015     2352922.72049   1830727.87446  22150517.985    22150524.585
       226.000         168.000
 98  1 23 22 38 29.9980000  0  7G19G15G27G26G 2G 7G13
  22655956.862     1881562.60249   1464720.11045  22655956.827    22655963.515
       214.000         157.000
  22830182.351    -4810668.64249  -3485121.90845  22830181.364    22830187.798
       212.000         155.000
  19897680.089    -1826586.18349  -1417768.43647  19897680.103    19897684.985
       244.000         210.000
  22328556.096    -6318859.31649  -4910626.14746  22328556.602    22328562.093
       225.000         175.000
  20567265.375    -3639414.84349  -2815701.98048  20567264.999    20567270.493
       245.000         216.000
  19921757.416    -6747122.87149  -5236887.77948  19921756.855    19921762.466
       246.000         216.000
  22159718.731     2401272.68749   1868403.09946  22159719.965    22159724.827
       224.000         168.000
 98  1 23 22 38 59.9980000  0  7G19G15G27G26G 2G 7G13
  22663841.211     1922995.11449   1497005.13445  22663841.939    22663847.178
       216.000         157.000
  22819831.992    -4865059.01349  -3527503.99145  22819832.469    22819838.486
       218.000         156.000
  19895873.235    -1836081.39649  -1425167.30647  19895873.254    19895878.131
       244.000         210.000
  22313484.475    -6398061.50549  -4972342.11746  22313484.866    22313489.823
       225.000         175.000
  20558053.213    -3687825.10949  -2853424.25948  20558052.796    20558058.290
       245.000         215.000
  19905180.611    -6834234.18849  -5304766.69748  19905180.131    19905185.628
       246.000         216.000
  22168967.355     2449874.24649   1906274.41746  22168967.423    22168972.551
       223.000         167.000
 98  1 23 22 39 29.9980000  0  7G19G15G27G26G 2G 7G13
  22671783.510     1964731.97249   1529527.31745  22671784.041    22671790.640
       217.000         156.000
  22809600.267    -4918829.76849  -3569403.23745  22809599.143    22809607.044
       218.000         157.000
  19894168.435    -1845040.32849  -1432148.30147  19894168.394    19894173.761
       244.000         210.000
  22298523.074    -6476684.11649  -5033606.48246  22298523.513    22298528.787
       225.000         175.000
  20548878.320    -3736039.30649  -2890993.75948  20548877.918    20548883.396
       245.000         215.000
  19888704.177    -6920818.31249  -5372234.81948  19888703.927    19888709.342
       246.000         216.000
  22178255.103     2498681.77549   1944306.22246  22178255.923    22178262.081
       223.000         167.000
 98  1 23 22 39 59.9980000  0  7G19G15G27G26G 2G 7G13
  22679770.773     2006705.18549   1562233.66645  22679771.741    22679777.368
       214.000         156.000
  22799473.593    -4972045.16949  -3610869.74245  22799473.563    22799480.060
       216.000         157.000
  19892555.331    -1853517.16149  -1438753.62647  19892555.331    19892560.286
       244.000         210.000
  22283659.067    -6554794.90249  -5094472.01346  22283659.923    22283664.743
       228.000         176.000
  20539729.844    -3784114.79749  -2928455.16648  20539729.451    20539734.906
       246.000         215.000
  19872317.339    -7006931.81449  -5439336.21648  19872316.911    19872322.365
       247.000         216.000
  22187570.418     2547633.82649   1982450.62046  22187571.044    22187577.103
       224.000         166.000
 98  1 23 22 40 29.9980000  0  7G19G15G27G26G 2G 7G13
  22687790.416     2048848.07149   1595072.23945  22687790.200    22687797.702
       212.000         156.000
  22789443.486    -5024754.21749  -3651941.69045  22789443.257    22789449.074
       219.000         157.000
  19891023.397    -1861567.67949  -1445026.75747  19891023.121    19891028.613
       244.000         210.000
  22268885.590    -6632430.33149  -5154967.13346  22268886.211    22268891.611
       226.000         176.000
  20530601.357    -3832085.38449  -2965834.82848  20530600.771    20530606.567
       246.000         216.000
  19856007.537    -7092640.43049  -5506122.11748  19856006.912    19856012.532
       247.000         216.000
  22196905.431     2596689.25349   2020675.58446  22196903.583    22196910.923
       222.000         166.000
 98  1 23 22 40 59.9970000  0  7G19G15G27G26G 2G 7G13
  22695908.516     2091509.01249   1628314.47545  22695908.849    22695914.972
       215.000         156.000
  22779581.138    -5076581.23449  -3692326.37545  22779580.804    22779587.123
       217.000         157.000
  19889641.795    -1868827.96349  -1450684.12647  19889641.827    19889646.855
       243.000         210.000
  22254274.802    -6709210.59649  -5214795.90146  22254274.566    22254281.025
       225.000         176.000
  20521565.712    -3879568.02149  -3002834.28048  20521565.356    20521570.839
       246.000         216.000
  19839845.763    -7177571.04649  -5572301.79248  19839845.281    19839850.858
       246.000         217.000
  22206330.616     2646218.63249   2059269.84446  22206331.217    22206335.630
       224.000         166.000
 98  1 23 22 41 29.9970000  0  7G19G15G27G26G 2G 7G13
  22704089.236     2134498.68249   1661812.86245  22704088.836    22704094.769
       217.000         157.000
  22769851.631    -5127710.48349  -3732167.30845  22769850.680    22769856.875
       217.000         157.000
  19888373.108    -1875495.02149  -1455879.24147  19888372.926    19888378.129
       244.000         210.000
  22239790.727    -6785324.75249  -5274105.62646  22239791.023    22239796.385
       226.000         176.000
  20512584.664    -3926763.99149  -3039610.35448  20512584.233    20512589.631
       246.000         215.000
  19823800.195    -7261891.05749  -5638005.67348  19823799.549    19823805.041
       247.000         217.000
  22215813.967     2696053.95949   2098102.52146  22215814.672    22215819.697
       222.000         165.000
 98  1 23 22 41 59.9970000  0  7G19G15G27G26G 2G 7G13
  22712338.742     2177850.01949   1695593.06345  22712338.555    22712347.145
       216.000         157.000
  22760259.766    -5178115.40549  -3771443.84745  22760259.390    22760265.008
       215.000         157.000
  19887220.970    -1881549.51049  -1460597.02747  19887220.853    19887225.996
       243.000         210.000
  22225440.799    -6860734.02849  -5332866.08046  22225441.487    22225446.529
       225.000         176.000
  20503662.373    -3973650.87849  -3076145.57848  20503661.900    20503667.343
       246.000         215.000
  19807877.709    -7345564.16849  -5703205.47248  19807877.062    19807882.634
       246.000         217.000
  22225359.896     2746218.03449   2137191.35446  22225361.532    22225365.265
       223.000         165.000
 98  1 23 22 42 29.9970000  0  7G19G15G27G26G 2G 7G13
  22720646.279     2221506.18849   1729610.80745  22720645.864    22720653.777
       216.000         158.000
  22750792.140    -5227866.49749  -3810210.90445  22750791.675    22750798.763
       213.000         156.000
  19886171.974    -1887062.12249  -1464892.57347  19886171.790    19886176.897
       244.000         210.000
  22211212.388    -6935504.92149  -5391129.09646  22211212.767    22211218.420
       226.000         176.000
  20494784.965    -4020301.95649  -3112497.06148  20494784.626    20494790.049
       245.000         215.000
  19792063.025    -7428670.81849  -5767963.87448  19792062.620    19792068.085
       246.000         217.000
  22234950.839     2796618.65649   2176464.51146  22234951.533    22234955.659
       223.000         165.000
 98  1 23 22 42 59.9970000  0  7G19G15G27G26G 2G 7G13
  22729000.745     2265408.93549   1763820.70145  22729000.121    22729007.369
       214.000         158.000
  22741434.824    -5277039.73649  -3848527.67945  22741434.373    22741440.802
       216.000         156.000
  19885214.528    -1892093.54749  -1468813.16847  19885214.522    19885219.639
       244.000         210.000
  22197087.267    -7009732.66149  -5448968.87746  22197087.356    22197093.152
       225.000         176.000
  20485934.375    -4066811.95049  -3148738.60348  20485933.913    20485939.297
       246.000         215.000
  19776342.042    -7511285.09249  -5832338.60648  19776341.444    19776346.920
       245.000         217.000
  22244568.438     2847159.27849   2215846.75346  22244569.745    22244574.160
       223.000         165.000
 98  1 23 22 43 29.9970000  0  7G19G15G27G26G 2G 7G13
  22737412.862     2309614.51849   1798266.55845  22737412.417    22737419.690
       215.000         158.000
  22732194.896    -5325595.92349  -3886363.63745  22732194.409    22732200.637
       214.000         156.000
  19884359.936    -1896584.57449  -1472312.67547  19884359.874    19884364.859
       243.000         209.000
  22183072.562    -7083380.38649  -5506356.69446  22183072.928    22183078.439
       225.000         176.000
  20477118.093    -4113142.17049  -3184840.06448  20477117.646    20477123.315
       245.000         215.000
  19760722.180    -7593367.98449  -5896299.27548  19760721.687    19760727.291
       245.000         217.000
  22254218.259     2897868.85849   2255360.68546  22254217.846    22254225.350
       222.000         164.000
 98  1 23 22 43 59.9970000  0  7G19G15G27G26G 2G 7G13
  22745880.478     2354111.91049   1832939.80545  22745881.014    22745888.681
       215.000         159.000
  22723069.641    -5373548.79749  -3923729.49345  22723069.057    22723076.417
       213.000         157.000
  19883605.654    -1900548.48649  -1475401.43847  19883605.506    19883610.490
       244.000         209.000
  22169163.815    -7156471.31449  -5563310.65046  22169164.177    22169168.886
       224.000         176.000
  20468335.224    -4159296.52149  -3220804.48248  20468334.837    20468340.062
       245.000         215.000
  19745199.267    -7674941.37849  -5959862.92948  19745198.763    19745204.072
       245.000         217.000
  22263893.960     2948715.27149   2294981.19246  22263896.315    22263900.166
       223.000         164.000
 98  1 23 22 44 29.9970000  0  7G19G15G27G26G 2G 7G13
  22754399.096     2398877.78249   1867822.26245  22754400.127    22754405.724
       215.000         159.000
  22714056.245    -5420914.50049  -3960637.80845  22714055.676    22714064.233
       215.000         157.000
  19882947.442    -1904007.48049  -1478096.76347  19882947.432    19882952.368
       243.000         209.000
  22155353.915    -7229042.81349  -5619859.85546  22155353.668    22155359.359
       226.000         176.000
  20459582.656    -4205291.55549  -3256644.75948  20459582.096    20459587.648
       246.000         215.000
  19729768.807    -7756028.72549  -6023047.84748  19729768.416    19729773.694
       245.000         217.000
  22273593.653     2999687.12149   2334699.49546  22273594.721    22273598.560
       224.000         164.000
 98  1 23 22 44 59.9970000  0  7G19G15G27G26G 2G 7G13
  22762972.562     2443931.42249   1902928.94345  22762973.651    22762980.356
       216.000         159.000
  22705162.246    -5467653.81349  -3997058.03045  22705161.524    22705168.709
       217.000         157.000
  19882392.911    -1906921.66949  -1480367.56747  19882392.786    19882397.831
       243.000         209.000
  22141650.075    -7301056.97649  -5675974.77946  22141650.634    22141656.159
       226.000         176.000
  20450865.353    -4251101.26049  -3292340.63648  20450865.091    20450870.478
       245.000         215.000
  19714438.226    -7836591.58849  -6085824.07848  19714437.869    19714443.186
       245.000         217.000
  22283326.949     3050835.63349   2374555.38246  22283328.353    22283332.595
       223.000         163.000
 98  1 23 22 45 29.9970000  0  7G19G15G27G26G 2G 7G13
  22771597.990     2489258.32449   1938248.55545  22771597.691    22771604.761
       215.000         158.000
  22696388.893    -5513758.22449  -4032983.52245  22696387.858    22696395.267
       217.000         158.000
  19881942.209    -1909290.17649  -1482213.16447  19881942.228    19881947.404
       243.000         209.000
  22128055.270    -7372498.19849  -5731643.23246  22128055.736    22128061.598
       226.000         176.000
  20442185.875    -4296712.22149  -3327881.63648  20442185.619    20442190.986
       245.000         215.000
  19699210.047    -7916616.11549  -6148180.82348  19699209.701    19699215.055
       245.000         217.000
  22293097.229     3102178.72249   2414562.94846  22293099.219    22293103.388
       223.000         164.000
 98  1 23 22 45 59.9970000  0  7G19G15G27G26G 2G 7G13
  22780272.273     2534841.53949   1973767.89345  22780272.396    22780279.735
       213.000         158.000
  22687735.317    -5559232.42349  -4068417.96545  22687734.738    22687741.713
       216.000         158.000
  19881592.052    -1911130.49249  -1483647.18147  19881592.100    19881596.949
       243.000         209.000
  22114568.656    -7443370.94149  -5786868.74246  22114568.823    22114573.806
       227.000         177.000
  20433544.241    -4342124.51449  -3363267.83548  20433544.042    20433549.315
       246.000         215.000
  19684083.644    -7996105.85349  -6210120.85048  19684083.043    19684088.382
       245.000         217.000
  22302902.503     3153705.28349   2454713.46946  22302903.241    22302909.235
       222.000         163.000
 98  1 23 22 46 29.9970000  0  7G19G15G27G26G 2G 7G13
  22789007.281     2580744.07749   2009536.05845  22789007.358    22789014.288
       217.000         158.000
  22679215.148    -5604007.97149  -4103307.98945  22679214.666    22679221.644
       216.000         158.000
  19881356.726    -1912367.14149  -1484610.80547  19881356.523    19881361.571
       243.000         208.000
  22101205.796    -7513593.70949  -5841587.75346  22101205.514    22101210.944
       226.000         176.000
  20424953.619    -4387268.54249  -3398444.99348  20424953.069    20424958.489
       245.000         215.000
  19669069.735    -8075004.32049  -6271600.14348  19669069.197    19669074.590
       245.000         217.000
  22312754.804     3205479.29049   2495056.78845  22312756.220    22312759.476
       223.000         162.000
 98  1 23 22 46 59.9970000  0  7G19G15G27G26G 2G 7G13
  22797796.291     2626930.61449   2045525.52545  22797796.434    22797802.528
       217.000         157.000
  22670822.981    -5648108.67549  -4137672.17345  22670822.336    22670827.558
       215.000         157.000
  19881231.222    -1913026.68449  -1485124.74147  19881230.970    19881236.171
       243.000         208.000
  22087964.220    -7583178.61749  -5895809.74446  22087964.460    22087969.787
       226.000         177.000
  20416410.675    -4432162.05749  -3433426.95248  20416410.153    20416415.440
       245.000         215.000
  19654162.753    -8153341.06449  -6332641.73748  19654162.317    19654167.748
       245.000         217.000
  22322647.583     3257466.10449   2535565.94545  22322648.832    22322653.789
       224.000         162.000
 98  1 23 22 47 29.9970000  0  7G19G15G27G26G 2G 7G13
  22806643.195     2673421.43449   2081752.08045  22806642.860    22806650.304
       218.000         157.000
  22662560.614    -5691528.17649  -4171505.54445  22662560.746    22662565.210
       218.000         157.000
  19881214.303    -1913115.64249  -1485194.06947  19881214.122    19881219.317
       243.000         208.000
  22074843.817    -7652126.63349  -5949535.45446  22074843.594    22074849.209
       225.000         177.000
  20407919.136    -4476785.22749  -3468198.25048  20407918.832    20407924.099
       245.000         215.000
  19639363.679    -8231110.76549  -6393241.48148  19639363.182    19639368.560
       244.000         217.000
  22332580.728     3309664.30549   2576239.79645  22332581.855    22332586.980
       222.000         162.000
 98  1 23 22 47 59.9970000  0  7G19G15G27G26G 2G 7G13
  22815555.243     2720254.35349   2118245.21145  22815555.719    22815562.834
       214.000         155.000
  22654432.880    -5734241.10049  -4204788.33045  22654432.563    22654438.250
       215.000         157.000
  19881309.596    -1912614.89749  -1484803.88447  19881309.666    19881314.812
       242.000         208.000
  22061847.966    -7720420.23549  -6002751.23946  22061847.621    22061853.712
       226.000         176.000
  20399485.264    -4521105.52649  -3502733.54948  20399484.801    20399490.211
       246.000         215.000
  19624673.673    -8308307.22949  -6453394.54648  19624673.171    19624678.598
       245.000         217.000
  22342557.275     3362091.34249   2617091.98945  22342558.409    22342563.852
       224.000         161.000
 98  1 23 22 48 29.9970000  0  7G19G15G27G26G 2G 7G13
  22824526.459     2767397.94649   2154980.43045  22824525.780    22824533.387
       215.000         154.000
  22646435.729    -5776265.49049  -4237534.62545  22646435.119    22646441.285
       215.000         156.000
  19881513.047    -1911545.69849  -1483970.75247  19881513.045    19881518.017
       243.000         207.000
  22048972.429    -7788081.40549  -6055474.21346  22048972.704    22048978.117
       226.000         177.000
  20391102.195    -4565159.06649  -3537060.98048  20391101.614    20391107.088
       245.000         215.000
  19610088.513    -8384952.69449  -6513118.26348  19610088.059    19610093.262
       244.000         217.000
  22352575.961     3414739.68849   2658116.62945  22352576.154    22352580.980
       221.000         161.000
 98  1 23 22 48 59.9970000  0  7G19G15G27G26G 2G 7G13
  22833555.928     2814848.18049   2191954.59145  22833556.997    22833563.799
       214.000         153.000
  22638569.464    -5817602.78249  -4269745.49345  22638568.205    22638574.358
       216.000         156.000
  19881823.099    -1909916.48949  -1482701.25047  19881823.000    19881828.010
       242.000         207.000
  22036216.231    -7855115.53149  -6107708.58646  22036216.205    22036221.026
       226.000         176.000
  20382767.286    -4608959.35049  -3571191.06948  20382766.694    20382772.106
       245.000         215.000
  19595610.759    -8461033.65049  -6572402.10648  19595610.031    19595615.271
       245.000         217.000
  22362638.152     3467616.84249   2699319.51545  22362639.557    22362643.326
       221.000         160.000
 98  1 23 22 49 29.9970000  0  7G19G15G27G26G 2G 7G13
  22842650.393     2862639.77749   2229194.76545  22842650.782    22842656.423
       215.000         152.000
  22630839.224    -5858225.86349  -4301399.85645  22630838.447    22630845.379
       215.000         156.000
  19882247.354    -1907687.14349  -1480964.10647  19882247.297    19882252.474
       242.000         207.000
  22023584.701    -7921494.31549  -6159432.30746  22023585.019    22023590.237
       225.000         176.000
  20374486.227    -4652476.17249  -3605100.28048  20374485.647    20374491.123
       245.000         215.000
  19581248.782    -8536506.16149  -6631211.83748  19581248.414    19581253.646
       244.000         217.000
  22372747.007     3520738.82749   2740713.22945  22372748.199    22372754.182
       222.000         160.000
 98  1 23 22 49 59.9970000  0  7G19G15G27G26G 2G 7G13
  22851817.397     2910812.30249   2266731.73645  22851817.686    22851824.556
       210.000         151.000
  22623254.629    -5898082.83149  -4332457.23145  22623255.166    22623260.480
       216.000         156.000
  19882797.940    -1904793.92249  -1478709.65947  19882797.955    19882802.873
       242.000         207.000
  22011090.174    -7987153.72549  -6210595.47246  22011091.199    22011095.991
       227.000         177.000
  20366269.003    -4695657.90849  -3638748.38248  20366268.576    20366274.058
       245.000         215.000
  19567014.740    -8611306.74049  -6689497.98348  19567014.148    19567019.573
       245.000         217.000
  22382911.760     3574154.19049   2782335.55145  22382911.583    22382917.969
       220.000         159.000
 98  1 23 22 50 29.9970000  0  7G19G15G27G26G 2G 7G13
  22861036.518     2959258.48649   2304481.97045  22861036.094    22861044.149
       212.000         149.000
  22615796.684    -5937275.51249  -4362996.98045  22615796.210    22615801.575
       216.000         156.000
  19883456.939    -1901330.97349  -1476011.27047  19883456.779    19883461.942
       242.000         207.000
  21998715.369    -8052183.94949  -6261268.36646  21998715.376    21998721.494
       226.000         177.000
  20358094.256    -4738616.74449  -3672222.79448  20358093.745    20358099.124
       245.000         215.000
  19552891.475    -8685524.69949  -6747330.14248  19552890.775    19552896.130
       244.000         217.000
  22393109.885     3627745.41049   2824094.88445  22393109.473    22393114.570
       217.000         158.000
 98  1 23 22 50 59.9970000  0  7G19G15G27G26G 2G 7G13
  22870319.092     3008038.54849   2342492.34845  22870319.857    22870326.499
       211.000         149.000
  22608472.493    -5975763.86149  -4392987.89045  22608471.741    22608477.549
       214.000         156.000
  19884233.142    -1897252.19349  -1472833.01347  19884232.972    19884238.130
       242.000         207.000
  21986467.963    -8116544.37549  -6311419.34146  21986468.345    21986473.574
       226.000         177.000
  20349973.970    -4781289.35049  -3705474.17348  20349973.596    20349978.914
       245.000         215.000
  19538885.920    -8759124.11849  -6804680.31948  19538885.401    19538890.736
       245.000         217.000
  22403344.390     3681528.00449   2866003.32445  22403344.687    22403350.529
       218.000         157.000
 98  1 23 22 51 29.9970000  0  7G19G15G27G26G 2G 7G13
  22879663.428     3057143.29849   2380755.76245  22879662.859    22879671.760
       211.000         148.000
  22601280.230    -6013558.84549  -4422438.54445  22601279.390    22601285.896
       214.000         156.000
  19885125.222    -1892564.43249  -1469180.22647  19885125.274    19885130.339
       242.000         207.000
  21974344.004    -8180256.45749  -6361065.10046  21974344.378    21974350.007
       227.000         177.000
  20341908.652    -4823673.01549  -3738500.39948  20341908.280    20341913.754
       245.000         215.000
  19524994.742    -8832122.61549  -6861562.24848  19524994.188    19524999.634
       244.000         217.000
  22413611.478     3735481.86349   2908045.23845  22413613.268    22413617.185
       220.000         156.000
 98  1 23 22 51 59.9970000  0  7G19G15G27G26G 2G 7G13
  22889076.352     3106608.58049   2419300.05745  22889077.721    22889083.913
       215.000         146.000
  22594228.292    -6050616.46649  -4451314.61145  22594228.121    22594233.517
       215.000         156.000
  19886137.158    -1887246.74549  -1465036.58947  19886137.044    19886142.254
       242.000         206.000
  21962351.830    -8243275.78449  -6410171.06146  21962352.530    21962357.422
       226.000         177.000
  20333904.441    -4865735.23249  -3771276.14548  20333904.031    20333909.496
       246.000         215.000
  19511222.691    -8904494.97249  -6917956.27348  19511222.172    19511227.540
       245.000         217.000
  22423922.479     3789665.88249   2950266.49745  22423924.210    22423927.897
       219.000         155.000
 98  1 23 22 52 29.9970000  0  7G19G15G27G26G 2G 7G13
  22898558.172     3156435.21349   2458125.94645  22898557.878    22898564.330
       212.000         146.000
  22587316.965    -6086936.16349  -4479615.67645  22587316.736    22587323.572
       215.000         156.000
  19887266.889    -1881309.96749  -1460410.54647  19887266.902    19887271.926
       242.000         206.000
  21950490.952    -8305604.68249  -6458739.02346  21950491.631    21950497.182
       227.000         177.000
  20325959.775    -4907484.87149  -3803808.32448  20325959.351    20325964.731
       246.000         215.000
  19497567.610    -8976253.07849  -6973871.65948  19497567.075    19497572.457
       245.000         217.000
  22434278.906     3844088.93749   2992674.01645  22434277.153    22434285.784
       214.000         155.000
 98  1 23 22 52 59.9970000  0  7G19G15G27G26G 2G 7G13
  22908106.873     3206613.74549   2497226.07845  22908107.167    22908114.040
       208.000         145.000
  22580544.493    -6122526.34649  -4507348.25845  22580543.285    22580550.427
       214.000         156.000
  19888512.090    -1874766.39249  -1455311.67147  19888511.820    19888516.872
       242.000         206.000
  21938759.650    -8367253.10649  -6506776.74646  21938760.962    21938765.428
       226.000         177.000
  20318072.712    -4948931.63649  -3836104.49748  20318072.351    20318077.742
       246.000         215.000
  19484029.357    -9047397.18349  -7029308.60248  19484028.867    19484034.248
       245.000         217.000
  22444683.878     3898767.39849   3035280.52045  22444683.459    22444689.738
       214.000         153.000
 98  1 23 22 53 29.9970000  0  7G19G15G27G26G 2G 7G13
  22917715.396     3257107.58449   2536571.84845  22917716.565    22917723.361
       213.000         146.000
  22573906.341    -6157408.46549  -4534529.13145  22573905.670    22573911.947
       215.000         155.000
  19889869.224    -1867634.61349  -1449754.45547  19889869.310    19889874.203
       241.000         206.000
  21927155.730    -8428232.14749  -6554292.87846  21927155.786    21927161.178
       227.000         177.000
  20310234.588    -4990121.41449  -3868200.42348  20310234.098    20310239.350
       245.000         214.000
  19470606.369    -9117935.49249  -7084273.49748  19470606.020    19470611.288
       244.000         217.000
  22455138.549     3953706.83649   3078090.38145  22455139.920    22455142.819
       217.000         153.000
 98  1 23 22 53 59.9970000  0  7G19G15G27G26G 2G 7G13
  22927385.094     3307921.77849   2576167.26745  22927386.191    22927392.679
       212.000         146.000
  22567405.037    -6191572.94449  -4561150.79445  22567404.461    22567410.630
       213.000         154.000
  19891341.156    -1859899.65549  -1443727.23247  19891341.081    19891346.492
       241.000         206.000
  21915684.630    -8488513.28349  -6601265.18746  21915684.767    21915690.141
       227.000         178.000
  20302443.751    -5031062.39749  -3900102.48448  20302443.301    20302448.705
       245.000         214.000
  19457300.612    -9187857.71949  -7138758.33048  19457300.121    19457305.531
       244.000         217.000
  22465644.336     4008914.87549   3121109.57345  22465645.277    22465650.005
       216.000         153.000
 98  1 23 22 54 29.9970000  0  7G19G15G27G26G 2G 7G13
  22937106.335     3359006.18949   2615973.25845  22937106.512    22937113.416
       213.000         146.000
  22561029.179    -6225078.69249  -4587259.16945  22561029.165    22561034.971
       216.000         155.000
  19892921.208    -1851596.61049  -1437257.34247  19892921.197    19892926.087
       242.000         205.000
  21904333.792    -8548162.40249  -6647745.00846  21904334.385    21904338.854
       227.000         177.000
  20294689.844    -5071809.35849  -3931853.35548  20294689.289    20294694.548
       245.000         214.000
  19444102.762    -9257212.83149  -7192801.25048  19444102.178    19444107.540
       244.000         217.000
  22476184.638     4064304.36449   3164270.16545  22476185.531    22476189.627
       217.000         153.000
 98  1 23 22 54 59.9970000  0  7G19G15G27G26G 2G 7G13
  22946892.914     3410434.72449   2656047.40845  22946893.686    22946900.672
       215.000         147.000
  22554791.711    -6257857.17249  -4612800.84045  22554790.903    22554798.167
       215.000         155.000
  19894624.275    -1842646.97049  -1430283.61347  19894624.198    19894629.353
       242.000         205.000
  21893114.323    -8607121.27649  -6693686.97746  21893114.772    21893120.694
       227.000         177.000
  20286988.183    -5112281.95949  -3963390.44148  20286987.741    20286993.300
       245.000         214.000
  19431025.800    -9325932.67249  -7246349.15748  19431025.351    19431030.563
       244.000         217.000
  22486768.003     4119919.41749   3207606.48745  22486767.065    22486773.140
       214.000         152.000
 98  1 23 22 55 29.9970000  0  7G19G15G27G26G 2G 7G13
  22956739.525     3462178.32449   2696367.02945  22956740.279    22956746.400
       217.000         148.000
  22548687.699    -6289933.85049  -4637795.63945  22548686.769    22548694.045
       211.000         155.000
  19896445.040    -1833078.86749  -1422827.96247  19896445.048    19896449.895
       241.000         205.000
  21882019.026    -8665427.52749  -6739120.41946  21882019.603    21882024.657
       227.000         177.000
  20279336.283    -5152493.17749  -3994723.85748  20279335.688    20279341.032
       245.000         214.000
  19418061.464    -9394060.61149  -7299435.84148  19418060.976    19418066.323
       244.000         217.000
  22497383.966     4175706.60249   3251076.91645  22497384.305    22497389.913
       216.000         152.000
 98  1 23 22 55 59.9970000  0  7G19G15G27G26G 2G 7G13
  22966648.474     3514249.77649   2736942.13245  22966648.660    22966657.187
       217.000         148.000
  22542718.023    -6321303.82649  -4662239.79945  22542718.471    22542724.138
       216.000         155.000
  19898381.550    -1822902.45749  -1414898.30747  19898381.497    19898386.654
       242.000         205.000
  21871046.440    -8723088.90149  -6784051.34746  21871046.629    21871051.619
       227.000         177.000
  20271737.891    -5192422.87449  -4025837.90448  20271737.388    20271742.832
       245.000         214.000
  19405207.922    -9461606.47649  -7352068.96248  19405207.524    19405212.874
       244.000         217.000
  22508026.961     4231636.11449   3294658.25745  22508028.496    22508033.486
       218.000         153.000
 98  1 23 22 56 29.9970000  0  7G19G15G27G26G 2G 7G13
  22976615.694     3566627.31349   2777755.76045  22976615.200    22976621.901
       212.000         148.000
  22536879.153    -6351988.53749  -4686149.95845  22536878.843    22536884.167
       214.000         155.000
  19900426.909    -1812154.22749  -1406523.07047  19900426.591    19900431.842
       241.000         205.000
  21860191.124    -8780133.83749  -6828501.93246  21860191.324    21860196.627
       227.000         177.000
  20264193.640    -5232068.10649  -4056730.28948  20264193.261    20264198.653
       245.000         214.000
  19392460.306    -9528595.61349  -7404268.26848  19392459.779    19392465.123
       244.000         217.000
  22518692.893     4287685.36749   3338332.95245  22518694.902    22518701.242
       218.000         153.000
 98  1 23 22 56 59.9960000  0  7G19G15G27G26G 2G 7G13
  22986643.270     3619323.02349   2818817.28345  22986643.258    22986649.925
       214.000         150.000
  22531176.245    -6381957.43149  -4709502.35145  22531175.592    22531182.173
       215.000         155.000
  19902585.464    -1800811.01049  -1397684.21547  19902585.517    19902590.246
       241.000         205.000
  21849459.938    -8836526.73149  -6872444.42946  21849460.553    21849465.776
       227.000         178.000
  20256709.911    -5271395.52849  -4087375.03348  20256709.212    20256714.754
       245.000         214.000
  19379825.427    -9594992.20049  -7456005.85048  19379824.876    19379830.204
       244.000         217.000
  22529390.701     4343902.35449   3382138.32845  22529393.236    22529398.134
       219.000         153.000
 98  1 23 22 57 29.9960000  0  7G19G15G27G26G 2G 7G13
  22996717.951     3672265.69149   2860071.29245  22996716.794    22996725.179
       212.000         149.000
  22525596.912    -6411276.19949  -4732348.14345  22525596.184    22525603.695
       215.000         154.000
  19904843.966    -1788942.71749  -1388436.20147  19904843.793    19904848.980
       241.000         205.000
  21838842.982    -8892318.77049  -6915918.73546  21838843.433    21838848.849
       226.000         178.000
  20249272.472    -5310479.35849  -4117829.96148  20249271.991    20249277.177
       245.000         214.000
  19367292.435    -9660853.37549  -7507326.22348  19367292.053    19367297.288
       244.000         217.000
  22540110.259     4400233.90649   3426032.97145  22540111.565    22540116.627
       218.000         154.000
 98  1 23 22 57 59.9960000  0  7G19G15G27G26G 2G 7G13
  23006850.101     3725510.18649   2901560.43545  23006849.659    23006857.892
       214.000         151.000
  22520153.313    -6439882.23849  -4754638.57045  22520152.823    22520159.371
       216.000         155.000
  19907212.745    -1776494.84449  -1378736.57247  19907212.633    19907217.803
       241.000         205.000
  21828355.519    -8947430.92849  -6958863.26346  21828355.944    21828361.117
       227.000         178.000
  20241893.273    -5349257.36949  -4148046.58948  20241892.929    20241898.480
       245.000         214.000
  19354875.782    -9726103.35349  -7558170.34448  19354875.429    19354880.669
       244.000         217.000
  22550863.731     4456742.95449   3470065.92745  22550864.072    22550869.767
       216.000         153.000
 98  1 23 22 58 29.9960000  0  7G19G15G27G26G 2G 7G13
  23017030.146     3779006.83749   2943246.09845  23017030.671    23017039.166
       217.000         150.000
  22514837.289    -6467817.98249  -4776406.69945  22514837.562    22514843.222
       215.000         155.000
  19909685.243    -1763501.80449  -1368612.13647  19909685.112    19909690.397
       241.000         204.000
  21817988.975    -9001907.04649  -7001312.16946  21817989.600    21817994.578
       227.000         178.000
  20234564.551    -5387770.11649  -4178056.52148  20234564.323    20234569.631
       245.000         214.000
  19342570.362    -9790768.80149  -7608558.98648  19342569.967    19342575.137
       244.000         217.000
  22561645.277     4513399.51849   3514213.80745  22561645.088    22561650.081
       215.000         154.000
 98  1 23 22 58 59.9960000  0  7G19G15G27G26G 2G 7G13
  23027256.724     3832747.17049   2985121.61345  23027256.112    23027263.867
       210.000         150.000
  22509646.963    -6495093.83849  -4797660.63145  22509646.386    22509652.948
       215.000         156.000
  19912261.383    -1749964.15749  -1358063.32747  19912261.288    19912266.255
       240.000         204.000
  21807740.034    -9055765.79149  -7043279.99846  21807740.895    21807746.005
       227.000         178.000
  20227281.368    -5426043.62549  -4207880.02848  20227280.865    20227286.230
       245.000         214.000
  19330375.442    -9854853.67549  -7658495.23448  19330374.950    19330380.314
       244.000         217.000
  22572450.726     4570182.30749   3558460.04045  22572450.238    22572455.386
       216.000         154.000
 98  1 23 22 59 29.9960000  0  7G19G15G27G26G 2G 7G13
  23037535.372     3886761.48049   3027210.66745  23037535.996    23037543.054
       213.000         151.000
  22504585.584    -6521692.00549  -4818386.48845  22504585.170    22504592.960
       215.000         156.000
  19914942.155    -1735876.61349  -1347086.03347  19914942.092    19914946.941
       240.000         204.000
  21797611.887    -9108989.55749  -7084753.05246  21797612.347    21797617.823
       227.000         178.000
  20220045.871    -5464066.34449  -4237508.11748  20220045.494    20220050.580
       245.000         214.000
  19318292.879    -9918348.01449  -7707971.32948  19318292.205    19318297.523
       244.000         217.000
  22583281.535     4627098.39949   3602810.15945  22583280.960    22583287.751
       215.000         155.000
 98  1 23 22 59 59.9960000  0  7G19G15G27G26G 2G 7G13
  23047871.862     3941080.16849   3069536.81845  23047873.679    23047879.249
       214.000         149.000
  22499656.817    -6547592.84549  -4838568.96145  22499656.822    22499664.213
       216.000         157.000
  19917731.305    -1721219.62749  -1335665.01847  19917731.212    19917736.427
       240.000         204.000
  21787606.291    -9161569.54249  -7125724.45746  21787606.384    21787611.459
       227.000         178.000
  20212861.544    -5501820.42549  -4266926.87848  20212861.207    20212866.375
       245.000         214.000
  19306324.045    -9981244.35849  -7756981.45448  19306323.590    19306328.748
       244.000         217.000
  22594142.007     4684170.26849   3647281.65545  22594141.451    22594149.598
       215.000         154.000
 98  1 23 23  0 29.9960000  0  7G19G15G27G26G 2G 7G13
  23058264.876     3995695.24449   3112094.01045  23058264.696    23058272.487
       210.000         149.000
  22494858.679    -6572807.52849  -4858216.76445  22494859.213    22494865.310
       216.000         157.000
  19920629.902    -1705987.59449  -1323795.91147  19920629.935    19920634.905
       241.000         204.000
  21777718.955    -9213527.32649  -7166211.02246  21777719.618    21777724.209
       226.000         178.000
  20205723.972    -5539328.49249  -4296153.93548  20205723.539    20205728.901
       245.000         214.000
  19294465.084   -10043563.61949  -7805541.90148  19294464.730    19294469.965
       244.000         217.000
  22605031.277     4741393.67149   3691871.24645  22605030.993    22605039.083
       217.000         154.000
 98  1 23 23  0 59.9960000  0  7G19G15G27G26G 2G 7G13
  23068712.135     4050595.45449   3154873.35145  23068712.762    23068719.452
       210.000         149.000
  22490190.275    -6597340.83849  -4877333.63345  22490190.215    22490196.183
       216.000         157.000
  19923635.900    -1690190.93549  -1311486.83747  19923635.744    19923640.837
       240.000         204.000
  21767950.836    -9264859.32349  -7206209.97546  21767951.061    21767956.521
       227.000         178.000
  20198631.100    -5576601.92949  -4325198.16448  20198630.599    20198635.937
       245.000         214.000
  19282713.259   -10105319.91549  -7853663.67548  19282712.746    19282718.101
       244.000         217.000
  22615949.523     4798768.68149   3736578.95945  22615950.004    22615957.379
       216.000         153.000
 98  1 23 23  1 29.9960000  0  7G19G15G27G26G 2G 7G13
  23079212.519     4105775.84249   3197870.98045  23079213.293    23079219.897
       210.000         147.000
  22485652.598    -6621186.53549  -4895914.69245  22485652.287    22485658.528
       214.000         157.000
  19926748.376    -1673834.71849  -1298741.74347  19926748.429    19926753.411
       240.000         204.000
  21758306.088    -9315543.11949  -7245703.82746  21758306.498    21758311.569
       227.000         178.000
  20191584.137    -5613634.01649  -4354054.33448  20191583.827    20191589.031
       245.000         214.000
  19271067.133   -10166520.64049  -7901352.53948  19271066.498    19271071.709
       245.000         217.000
  22626900.562     4856316.18049   3781421.04745  22626901.782    22626906.166
       216.000         153.000
 98  1 23 23  1 59.9960000  0  8G19G15G27G26G 2G 7G 4G13
  23089754.284     4161173.19349   3241037.71345  23089754.326    23089761.541
       205.000         145.000
  22481236.020    -6644395.52849  -4913999.62045  22481236.344    22481242.649
       215.000         157.000
  19929959.458    -1656960.35249  -1285592.89647  19929959.386    19929964.418
       240.000         203.000
  21748775.705    -9365625.50349  -7284729.04546  21748775.196    21748781.265
       227.000         178.000
  20184575.251    -5650465.77049  -4382754.39748  20184574.830    20184580.085
       245.000         214.000
  19259518.234   -10227210.26549  -7948643.14548  19259517.713    19259522.742
       244.000         218.000
  23562110.274    -6789888.38949  -4561920.21945  23562109.151    23562116.784
       207.000         136.000
  22637875.493     4913989.29449   3826361.03545  22637873.406    22637881.904
       214.000         153.000
 98  1 23 23  2 29.9960000  0  8G19G15G27G26G 2G 7G 4G13
  23100338.064     4216791.02849   3284376.25345  23100338.438    23100345.570
       202.000         145.000
  22476944.753    -6666946.08549  -4931571.48345  22476943.676    22476952.277
       215.000         157.000
  19933272.092    -1639552.44449  -1272028.30047  19933271.943    19933277.086
       240.000         203.000
  21739363.197    -9415088.47849  -7323271.61346  21739363.602    21739368.303
       227.000         178.000
  20177610.280    -5687067.20949  -4411274.99348  20177609.871    20177615.173
       245.000         214.000
  19248071.963   -10287360.49149  -7995513.43648  19248071.427    19248076.626
       244.000         218.000
  23533799.753    -6938661.17049  -4677846.91945  23533801.128    23533806.539
       203.000         138.000
  22648876.375     4971799.10349   3871407.55245  22648876.959    22648882.857
       214.000         152.000
 98  1 23 23  2 59.9960000  0  8G19G15G27G26G 2G 7G 4G13
  23110968.597     4272655.16449   3327906.68645  23110969.529    23110974.262
       205.000         143.000
  22472782.365    -6688819.59749  -4948615.78645  22472781.837    22472788.461
       214.000         156.000
  19936686.739    -1621608.53449  -1258046.04947  19936686.969    19936691.645
       240.000         203.000
  21730074.620    -9463900.15149  -7361306.67746  21730075.162    21730080.140
       226.000         178.000
  20170693.628    -5723414.50849  -4439597.56448  20170693.150    20170698.497
       245.000         214.000
  19236732.878   -10346947.77949  -8041945.07948  19236732.437    19236737.467
       244.000         218.000
  23505491.695    -7087420.39349  -4793763.03845  23505491.727    23505498.805
       204.000         140.000
  22659904.304     5029751.23949   3916564.97345  22659903.985    22659911.371
       214.000         150.000
 98  1 23 23  3 29.9960000  0  8G19G15G27G26G 2G 7G 4G13
  23121645.156     4328760.67349   3371625.20445  23121645.558    23121652.924
       203.000         142.000
  22468745.550    -6710032.93349  -4965145.67345  22468745.431    22468751.894
       214.000         156.000
  19940202.021    -1603135.74849  -1243651.67947  19940201.975    19940206.923
       240.000         203.000
  21720905.411    -9512084.45249  -7398852.86646  21720905.560    21720910.826
       227.000         178.000
  20163822.112    -5759524.57349  -4467735.27948  20163821.757    20163826.856
       245.000         214.000
  19225498.270   -10405985.90949  -8087948.80248  19225497.715    19225502.906
       245.000         218.000
  23477185.417    -7236170.46049  -4909672.06245  23477185.623    23477193.429
       207.000         138.000
  22670952.441     5087809.08549   3961804.75845  22670952.416    22670957.925
       212.000         149.000
 98  1 23 23  3 59.9960000  0  8G19G15G27G26G 2G 7G 4G13
  23132365.963     4385098.87949   3415525.07345  23132364.877    23132373.269
       200.000         140.000
  22464831.433    -6730602.11649  -4981173.61845  22464831.881    22464838.582
       215.000         156.000
  19943815.673    -1584146.05849  -1228854.52747  19943815.554    19943820.678
       240.000         203.000
  21711848.334    -9559679.71949  -7435940.07846  21711848.560    21711854.083
       227.000         178.000
  20156994.808    -5795402.15049  -4495691.83448  20156994.373    20156999.595
       245.000         214.000
  19214367.667   -10464477.66049  -8133526.77548  19214367.290    19214372.456
       244.000         218.000
  23448880.251    -7384913.97549  -5025575.94845  23448881.167    23448887.543
       209.000         138.000
  22682013.312     5145934.06649   4007096.85445  22682013.199    22682019.764
       211.000         148.000
 98  1 23 23  4 29.9960000  0  8G19G15G27G26G 2G 7G 4G13
  23143132.075     4441674.40449   3459609.85045  23143133.182    23143138.486
       201.000         141.000
  22461040.410    -6750524.49849  -4996697.56045  22461040.285    22461046.644
       215.000         157.000
  19947527.751    -1564639.17649  -1213654.37347  19947527.644    19947532.677
       240.000         202.000
  21702902.293    -9606691.63549  -7472572.73646  21702903.053    21702907.607
       226.000         178.000
  20150210.579    -5831053.49449  -4523472.10548  20150210.370    20150215.659
       245.000         214.000
  19203339.989   -10522428.54449  -8178683.29448  19203339.635    19203344.888
       245.000         218.000
  23420578.852    -7533638.68449  -5141465.17445  23420578.841    23420586.654
       207.000         140.000
  22693084.752     5204114.65649   4052432.27045  22693084.025    22693091.563
       212.000         147.000
 98  1 23 23  4 59.9960000  0  8G19G15G27G26G 2G 7G 4G13
  23153945.181     4498497.75749   3503887.70645  23153946.996    23153951.384
       210.000         139.000
  22457372.481    -6769799.98349  -5011717.42745  22457371.725    22457377.974
       213.000         156.000
  19951339.924    -1544606.12249  -1198044.20847  19951339.925    19951344.993
       240.000         202.000
  21694067.820    -9653116.96249  -7508748.31146  21694068.859    21694073.399
       227.000         178.000
  20143467.919    -5866486.56149  -4551082.28648  20143467.438    20143472.687
       245.000         214.000
  19192414.857   -10579840.66849  -8223420.00148  19192414.568    19192419.611
       245.000         218.000
  23392282.338    -7682337.31649  -5257334.12345  23392283.019    23392290.156
       208.000         139.000
  22704167.281     5262353.17749   4097812.86245  22704167.142    22704174.209
       210.000         145.000
 98  1 23 23  5 29.9960000  0  8G19G15G27G26G 2G 7G 4G13
  23164800.314     4555541.69649   3548337.50545  23164798.913    23164807.047
       202.000         138.000
  22453825.355    -6788439.75449  -5026241.93645  22453824.940    22453831.911
       215.000         155.000
  19955251.779    -1524049.33049  -1182025.94247  19955251.587    19955256.742
       239.000         202.000
  21685340.973    -9698976.98549  -7544483.38946  21685341.570    21685346.497
       228.000         178.000
  20136764.942    -5901710.88749  -4578529.81648  20136764.708    20136769.891
       245.000         214.000
  19181589.967   -10636725.89949  -8267746.13948  19181589.692    19181594.707
       245.000         218.000
  23363989.842    -7831014.96249  -5373186.68645  23363990.226    23363997.329
       206.000         138.000
  22715260.465     5320648.05749   4143237.33745  22715261.772    22715265.791
       211.000         144.000
 98  1 23 23  5 59.9960000  0  8G19G15G27G26G 2G 7G 4G13
  23175698.344     4612810.56349   3592962.53845  23175698.228    23175704.468
       199.000         139.000
  22450401.525    -6806431.74249  -5040261.67145  22450400.321    22450407.943
       212.000         154.000
  19959264.692    -1502961.37649  -1165593.78047  19959264.759    19959269.541
       239.000         202.000
  21676725.672    -9744250.63049  -7579761.55146  21676725.895    21676730.719
       227.000         178.000
  20130106.503    -5936701.37549  -4605795.12948  20130106.108    20130111.422
       245.000         214.000
  19170866.283   -10693079.38149  -8311657.92448  19170865.996    19170871.089
       245.000         218.000
  23335701.092    -7979672.69749  -5489023.71745  23335699.471    23335706.588
       205.000         140.000
  22726367.350     5379014.69649   4188717.73545  22726366.864    22726374.733
       210.000         144.000
 98  1 23 23  6 29.9960000  0  8G19G15G27G26G 2G 7G 4G13
  23186642.632     4670323.53149   3637777.77345  23186642.751    23186650.632
       208.000         139.000
  22447103.952    -6823759.97849  -5053764.19545  22447104.283    22447110.395
       214.000         154.000
  19963383.129    -1481318.86049  -1148729.49247  19963382.978    19963388.102
       239.000         201.000
  21668228.293    -9788904.67549  -7614556.91646  21668228.637    21668233.354
       227.000         178.000
  20123494.027    -5971450.14149  -4632872.09448  20123493.675    20123499.013
       245.000         213.000
  19160246.143   -10748888.68549  -8355145.67648  19160245.848    19160250.909
       244.000         218.000
  23307416.172    -8128310.16049  -5604845.00545  23307416.182    23307424.176
       210.000         141.000
  22737492.122     5437475.82849   4234271.75645  22737494.200    22737499.434
       211.000         143.000
 98  1 23 23  6 59.9960000  0  8G19G15G27G26G 2G 7G 4G13
  23197629.926     4728061.71249   3682768.52845  23197630.355    23197637.060
       206.000         138.000
  22443928.554    -6840447.73249  -5066767.63545  22443928.312    22443933.984
       214.000         156.000
  19967602.420    -1459146.56149  -1131452.38447  19967602.466    19967607.320
       239.000         201.000
  21659846.459    -9832951.55749  -7648879.15046  21659847.040    21659852.253
       227.000         178.000
  20116925.612    -6005967.60549  -4659768.81948  20116925.252    20116930.624
       245.000         213.000
  19149726.473   -10804170.11749  -8398222.09748  19149726.071    19149731.085
       245.000         218.000
  23279131.152    -8276948.50549  -5720667.01545  23279130.373    23279138.160
       204.000         141.000
  22748632.141     5496017.07449   4279888.22345  22748632.869    22748639.686
       209.000         142.000
 98  1 23 23  7 29.9960000  0  8G19G15G27G26G 2G 7G 4G13
  23208659.824     4786024.05449   3727933.93945  23208661.128    23208667.757
       203.000         139.000
  22440875.996    -6856490.14749  -5079268.21345  22440876.365    22440881.393
       216.000         157.000
  19971921.711    -1436448.51349  -1113765.60647  19971921.696    19971926.511
       239.000         201.000
  21651579.590    -9876394.45149  -7682730.75846  21651579.963    21651584.783
       227.000         178.000
  20110402.951    -6040244.22849  -4686477.87748  20110402.518    20110407.649
       244.000         213.000
  19139307.789   -10858920.72249  -8440884.88848  19139307.263    19139312.459
       245.000         218.000
  23250845.831    -8425588.12549  -5836489.98945  23250844.415    23250852.087
       211.000         142.000
  22759785.629     5554628.84349   4325559.60445  22759786.857    22759791.564
       210.000         141.000
 98  1 23 23  7 59.9960000  0  8G19G15G27G26G 2G 7G 4G13
  23219734.481     4844221.62849   3773282.64745  23219735.072    23219742.212
       212.000         138.000
  22437946.693    -6871884.99649  -5091264.21045  22437946.403    22437951.981
       215.000         158.000
  19976339.247    -1413234.21549  -1095676.55447  19976338.988    19976343.978
       238.000         200.000
  21643427.083    -9919236.26649  -7716113.98646  21643427.557    21643432.994
       227.000         178.000
  20103926.044    -6074280.56249  -4712999.69548  20103925.622    20103930.628
       245.000         213.000
  19128990.306   -10913139.34049  -8483133.14448  19128989.846    19128994.795
       245.000         218.000
  23222563.079    -8574214.70649  -5952302.81245  23222563.074    23222569.594
       211.000         143.000
  22770949.811     5613296.45549   4371274.53445  22770951.248    22770958.129
       210.000         141.000
 98  1 23 23  8 29.9960000  0  8G19G15G27G26G 2G 7G 4G13
  23230854.489     4902657.03449   3818816.70245  23230854.644    23230862.957
       202.000         138.000
  22435141.417    -6886627.18149  -5102751.63045  22435139.746    22435147.149
       214.000         157.000
  19980854.569    -1389506.04749  -1077187.09047  19980854.642    19980859.507
       238.000         200.000
  21635389.566    -9961473.63249  -7749026.23146  21635389.432    21635395.332
       227.000         178.000
  20097493.030    -6108086.17549  -4739341.73548  20097492.495    20097497.772
       245.000         213.000
  19118775.967   -10966816.03749  -8524959.12648  19118775.617    19118780.666
       244.000         218.000
  23194289.636    -8722792.13049  -6068077.34345  23194290.337    23194296.560
       210.000         143.000
  22782126.652     5672030.26249   4417041.01345  22782128.321    22782133.084
       213.000         140.000
 98  1 23 23  8 59.9960000  0  8G19G15G27G26G 2G 7G 4G13
  23242018.859     4961325.69249   3864532.49345  23242020.744    23242026.117
       214.000         139.000
  22432461.458    -6900709.56549  -5113724.92545  22432460.501    22432468.879
       211.000         156.000
  19985468.243    -1365261.18449  -1058295.00247  19985468.358    19985473.073
       239.000         200.000
  21627466.080   -10003111.87449  -7781471.62346  21627466.726    21627471.814
       226.000         178.000
  20091106.598    -6141646.96049  -4765492.99948  20091106.317    20091111.519
       245.000         213.000
  19108664.854   -11019950.32649  -8566362.45348  19108664.397    19108669.495
       245.000         218.000
  23166032.188    -8871285.64349  -6183786.49445  23166033.249    23166039.086
       212.000         146.000
  22793315.640     5730828.47749   4462857.70845  22793316.515    22793322.441
       211.000         140.000
 98  1 23 23  9 29.9960000  0  8G19G15G27G26G 2G 7G 4G13
  23253222.767     5020202.51749   3910410.47945  23253221.859    23253231.295
       210.000         139.000
  22429902.028    -6914157.25549  -5124203.65045  22429901.502    22429909.096
       212.000         154.000
  19990176.237    -1340520.67349  -1039016.69647  19990176.059    19990181.010
       238.000         200.000
  21619650.590   -10044182.53749  -7813474.73446  21619651.467    21619656.129
       227.000         178.000
  20084761.053    -6174993.17549  -4791477.06148  20084760.580    20084765.837
       245.000         213.000
  19098651.298   -11072571.92549  -8607366.28048  19098650.819    19098655.987
       245.000         218.000
  23137786.670    -9019716.33149  -6299446.68945  23137788.093    23137794.246
       213.000         147.000
  22804509.752     5789653.84649   4508695.56045  22804510.646    22804516.923
       212.000         140.000
 98  1 23 23  9 59.9960000  0  8G19G15G27G26G 2G 7G 4G13
  23264464.182     5079275.37849   3956441.28945  23264463.087    23264470.150
       204.000         138.000
  22427461.511    -6926980.85049  -5134196.07845  22427461.042    22427468.842
       212.000         153.000
  19994978.987    -1315282.09449  -1019350.28947  19994978.974    19994983.952
       238.000         199.000
  21611943.717   -10084682.16049  -7845032.90046  21611943.923    21611949.660
       228.000         179.000
  20078456.112    -6208125.96049  -4817294.82148  20078455.704    20078460.906
       245.000         213.000
  19088731.838   -11124699.02649  -8647984.78948  19088731.406    19088736.357
       245.000         218.000
  23109553.689    -9168080.92049  -6415055.36245  23109554.508    23109562.080
       213.000         147.000
  22815710.391     5848513.18349   4554559.86245  22815712.511    22815717.496
       214.000         140.000
 98  1 23 23 10 29.9960000  0  8G19G15G27G26G 2G 7G 4G13
  23275746.931     5138566.50449   4002642.08645  23275747.425    23275754.135
       216.000         139.000
  22425145.037    -6939153.94049  -5143681.60045  22425145.895    22425150.780
       215.000         154.000
  19999885.243    -1289499.52349   -999259.99147  19999885.078    19999890.323
       238.000         199.000
  21604352.752   -10124574.05649  -7876117.49246  21604353.178    21604358.192
       227.000         179.000
  20072198.466    -6241010.27549  -4842918.96848  20072198.196    20072203.643
       245.000         213.000
  19078912.464   -11176300.09649  -8688193.40348  19078911.974    19078916.988
       245.000         218.000
  23081337.452    -9316358.37249  -6530596.11545  23081338.402    23081344.109
       214.000         147.000
  22826923.532     5907437.69649   4600474.99245  22826923.250    22826930.735
       212.000         140.000
 98  1 23 23 10 59.9960000  0  8G19G15G27G26G 2G 7G 4G13
  23287068.618     5198062.39249   4049002.50145  23287069.118    23287077.551
       212.000         137.000
  22422951.016    -6950684.98449  -5152666.82245  22422952.163    22422957.318
       216.000         155.000
  20004894.485    -1263175.88549   -978748.07847  20004894.490    20004899.481
       238.000         199.000
  21596875.480   -10163867.55349  -7906735.79846  21596876.264    21596880.866
       227.000         179.000
  20065989.696    -6273637.75849  -4868342.98348  20065989.225    20065994.448
       246.000         213.000
  19069192.666   -11227377.81349  -8727994.20948  19069192.193    19069197.227
       245.000         218.000
  23053132.246    -9464577.71049  -6646091.55645  23053132.788    23053138.376
       214.000         148.000
  22838145.536     5966409.50649   4646426.96945  22838146.760    22838152.067
       213.000         141.000
 98  1 23 23 11 29.9960000  0  8G19G15G27G26G 2G 7G 4G13
  23298426.768     5257749.37649   4095511.81745  23298427.384    23298435.059
       208.000         139.000
  22420877.057    -6961584.94349  -5161160.30045  22420876.670    22420882.053
       216.000         155.000
  20010003.129    -1236329.82849   -957829.08947  20010002.983    20010008.245
       238.000         198.000
  21589512.664   -10202559.71749  -7936885.53746  21589512.881    21589518.212
       228.000         179.000
  20059826.704    -6306024.37849  -4893579.31548  20059826.241    20059831.559
       246.000         213.000
  19059571.985   -11277934.94149  -8767389.36648  19059571.463    19059576.539
       244.000         218.000
  23024933.920    -9612760.60149  -6761558.58445  23024933.950    23024941.277
       215.000         148.000
  22849376.881     6025430.06249   4692416.89845  22849377.405    22849383.918
       215.000         142.000
 98  1 23 23 11 59.9960000  0  8G19G15G27G26G 2G 7G 4G13
  23309814.691     5317594.18749   4142144.07445  23309815.121    23309822.767
       209.000         136.000
  22418918.789    -6971876.45549  -5169179.65845  22418918.276    22418924.305
       213.000         154.000
  20015206.307    -1208987.03449   -936523.03647  20015206.331    20015211.085
       238.000         198.000
  21582261.237   -10240666.40949  -7966579.07246  21582261.471    21582266.892
       229.000         179.000
  20053705.034    -6338194.15949  -4918646.68248  20053704.749    20053709.932
       246.000         213.000
  19050047.772   -11327985.00349  -8806389.40548  19050047.387    19050052.407
       245.000         218.000
  22996738.537    -9760928.34249  -6877013.81545  22996738.020    22996744.554
       214.000         147.000
  22860614.250     6084482.04849   4738431.35045  22860615.395    22860621.166
       212.000         142.000
 98  1 23 23 12 29.9960000  0  7G15G27G26G 2G 7G 4G13
  22417080.228    -6981538.18649  -5176708.28445  22417079.259    22417086.798
       213.000         153.000
  20020504.258    -1181146.11349   -914828.82647  20020503.874    20020509.260
       237.000         198.000
  21575125.022   -10278167.88449  -7995801.00246  21575125.272    21575130.527
       228.000         179.000
  20047627.578    -6370131.47849  -4943532.90748  20047627.177    20047632.184
       246.000         213.000
  19040626.689   -11377493.08349  -8844967.12048  19040626.169    19040631.243
       244.000         218.000
  22968547.345    -9909073.94649  -6992451.79845  22968546.436    22968552.970
       216.000         147.000
  22871859.914     6143577.31949   4784479.52345  22871861.750    22871867.124
       216.000         142.000
 98  1 23 23 12 59.9960000  0  7G15G27G26G 2G 7G 4G13
  22415360.523    -6990574.65849  -5183749.71545  22415360.339    22415367.155
       213.000         153.000
  20025891.986    -1152833.50449   -892767.06747  20025891.744    20025897.151
       237.000         198.000
  21568101.638   -10315075.49149  -8024560.18046  21568101.254    21568106.453
       228.000         178.000
  20041593.120    -6401842.83949  -4968243.06048  20041592.774    20041598.030
       246.000         213.000
  19031307.399   -11426466.18449  -8883127.97048  19031306.850    19031311.860
       245.000         218.000
  22940358.601   -10057206.36249  -7107879.48245  22940357.911    22940365.758
       213.000         147.000
  22883113.946     6202717.31749   4830562.53945  22883115.359    22883121.352
       215.000         143.000
 98  1 23 23 13 29.9960000  0  8G15G27G26G 2G 9G 7G 4G13
  22413759.402    -6998988.32549  -5190305.86345  22413759.477    22413764.876
       214.000         153.000
  20031368.236    -1124055.66349   -870342.79647  20031368.172    20031373.377
       238.000         197.000
  21561189.483   -10351399.24449  -8052864.40946  21561189.989    21561195.167
       229.000         178.000
  20035597.740    -6433348.96049  -4992793.28848  20035597.345    20035602.735
       246.000         213.000
  23387619.521    -3872619.46449  -2630425.74345  23387619.778    23387625.144
       207.000         144.000
  19022087.273   -11474918.29749  -8920882.85748  19022086.793    19022091.828
       245.000         218.000
  22912174.352   -10205314.78949  -7223288.50045  22912173.462    22912181.157
       214.000         146.000
  22894376.126     6261899.78449   4876678.66045  22894375.863    22894382.390
       212.000         142.000
 98  1 23 23 13 59.9960000  0  8G15G27G26G 2G 9G 7G 4G13
  22412273.834    -7006795.16449  -5196389.14445  22412273.226    22412279.557
       212.000         153.000
  20036930.980    -1094823.27549   -847564.33147  20036931.031    20036936.128
       237.000         197.000
  21554383.668   -10387164.39949  -8080733.37046  21554384.340    21554388.789
       228.000         179.000
  20029638.446    -6464665.38949  -5017195.70548  20029638.130    20029643.230
       246.000         213.000
  23360190.669    -4016758.98949  -2742742.28545  23360190.087    23360196.865
       203.000         143.000
  19012962.299   -11522870.51249  -8958248.21048  19012961.800    19012966.842
       245.000         218.000
  22883992.042   -10353413.50449  -7338689.95445  22883991.263    22883998.878
       211.000         145.000
  22905641.489     6321099.29749   4922808.06645  22905641.764    22905647.763
       214.000         143.000
 98  1 23 23 14 29.9950000  0  8G15G27G26G 2G 9G 7G 4G13
  22410913.097    -7013946.09149  -5201961.32145  22410913.338    22410919.706
       212.000         154.000
  20042589.348    -1065088.41449   -824394.32747  20042589.224    20042594.501
       237.000         197.000
  21547692.907   -10422323.77649  -8108130.27646  21547693.632    21547698.681
       228.000         179.000
  20023725.056    -6495740.60249  -5041410.15748  20023724.664    20023729.736
       246.000         213.000
  23332788.548    -4160757.51349  -2854948.79945  23332788.697    23332795.535
       208.000         143.000
  19003940.682   -11570279.29249  -8995190.10948  19003940.296    19003945.301
       245.000         218.000
  22855822.620   -10501443.63949  -7454037.94945  22855822.583    22855828.065
       214.000         144.000
  22916918.311     6380358.91249   4968984.28845  22916918.817    22916923.835
       213.000         143.000
 98  1 23 23 14 59.9950000  0  8G15G27G26G 2G 9G 7G 4G13
  22409671.423    -7020471.34349  -5207045.96845  22409671.058    22409678.275
       212.000         154.000
  20048341.342    -1034861.69349   -800841.05847  20048341.372    20048346.379
       237.000         197.000
  21541110.696   -10456913.73649  -8135083.50146  21541110.759    21541116.123
       228.000         178.000
  20017850.600    -6526610.78649  -5065464.84948  20017850.261    20017855.341
       246.000         213.000
  23305405.406    -4304656.94449  -2967078.21045  23305404.724    23305411.174
       204.000         141.000
  18995015.456   -11617181.74049  -9031737.46348  18995015.145    18995020.073
       245.000         218.000
  22827663.732   -10649418.45449  -7569342.84445  22827663.288    22827669.769
       212.000         144.000
  22928200.169     6439644.99649   5015181.13945  22928200.277    22928206.547
       213.000         142.000
 98  1 23 23 15 29.9950000  0  8G15G27G26G 2G 9G 7G 4G13
  22408558.583    -7026319.76549  -5211603.18445  22408559.217    22408564.787
       214.000         153.000
  20054200.561    -1004071.45849   -776848.68547  20054200.666    20054205.583
       237.000         197.000
  21534647.297   -10490879.16049  -8161550.07646  21534647.864    21534652.862
       228.000         178.000
  20012024.381    -6557227.87749  -5089322.32648  20012023.854    20012029.126
       245.000         213.000
  23278051.509    -4448402.23249  -3079087.44645  23278051.450    23278058.117
       207.000         147.000
  18986196.186   -11663527.48449  -9067851.02248  18986195.790    18986200.767
       244.000         218.000
  22799529.141   -10797265.38049  -7684548.11845  22799529.114    22799535.622
       215.000         144.000
  22939494.317     6498995.68949   5061428.33945  22939495.917    22939501.516
       209.000         141.000
 98  1 23 23 15 59.9950000  0  8G15G27G26G 2G 9G 7G 4G13
  22407571.556    -7031506.88649  -5215645.11745  22407571.221    22407574.970
       212.000         151.000
  20060164.130     -972732.90149   -752429.04647  20060164.197    20060169.174
       236.000         196.000
  21528301.937   -10524224.18449  -8187533.21146  21528301.557    21528307.660
       228.000         178.000
  20006247.336    -6587586.60949  -5112978.48648  20006246.883    20006252.035
       246.000         213.000
  23250727.736    -4591989.68249  -3190973.71745  23250726.957    23250733.644
       203.000         144.000
  18977481.217   -11709325.06449  -9103537.43848  18977480.913    18977485.816
       245.000         218.000
  22771417.456   -10944992.12049  -7799659.73645  22771416.676    22771424.406
       211.000         144.000
  22950797.344     6558393.34149   5107712.13045  22950796.984    22950804.831
       210.000         141.000
 98  1 23 23 16 29.9950000  0  8G15G27G26G 2G 9G 7G 4G13
  22406716.928    -7035997.24549  -5219144.12145  22406716.633    22406724.129
       210.000         150.000
  20066238.203     -940813.63849   -727556.91147  20066238.352    20066243.171
       237.000         196.000
  21522082.442   -10556907.74249  -8213000.92446  21522082.392    21522088.574
       228.000         178.000
  20000527.014    -6617647.08049  -5136402.23548  20000526.753    20000532.086
       246.000         213.000
  23223441.536    -4735379.65949  -3302706.18545  23223442.216    23223447.476
       205.000         144.000
  18968876.840   -11754541.32249  -9138770.87748  18968876.390    18968881.469
       244.000         218.000
  22743337.201   -11092554.19449  -7914643.06945  22743337.095    22743344.995
       211.000         144.000
  22962115.729     6617871.54649   5154058.69245  22962116.188    22962120.961
       211.000         140.000
 98  1 23 23 16 59.9950000  0  8G15G27G26G 2G 9G 7G 4G13
  22405982.878    -7039853.84949  -5222149.28545  22405982.411    22405989.874
       211.000         150.000
  20072410.409     -908378.56049   -702282.84347  20072410.180    20072415.513
       236.000         196.000
  21515975.507   -10589000.29149  -8238008.11146  21515975.770    21515980.901
       228.000         178.000
  19994851.021    -6647474.79949  -5159644.61848  19994850.663    19994855.848
       246.000         213.000
  23196179.679    -4878641.27449  -3414338.50745  23196178.190    23196184.778
       207.000         141.000
  18960370.323   -11799243.34649  -9173603.61248  18960369.779    18960374.941
       245.000         218.000
  22715276.505   -11240013.64449  -8029546.43645  22715277.690    22715283.982
       211.000         145.000
  22973436.122     6677360.32849   5200413.45745  22973437.160    22973442.724
       209.000         139.000
 98  1 23 23 17 29.9950000  0  8G15G27G26G 2G 9G 7G 4G13
  22405370.974    -7043069.71449  -5224655.16345  22405370.205    22405378.047
       212.000         151.000
  20078678.757     -875438.17949   -676615.03147  20078678.420    20078683.689
       237.000         196.000
  21509982.020   -10620496.34449  -8262550.49446  21509982.199    21509987.489
       227.000         178.000
  19989221.468    -6677058.32649  -5182696.72847  19989220.980    19989226.196
       245.000         212.000
  23168948.348    -5021743.32149  -3525846.62445  23168948.850    23168954.352
       209.000         144.000
  18951962.178   -11843428.39649  -9208033.51348  18951961.650    18951966.871
       244.000         218.000
  22687236.381   -11387365.39149  -8144365.89845  22687236.153    22687242.942
       209.000         145.000
  22984760.378     6736869.33149   5246784.03945  22984760.322    22984767.373
       206.000         137.000
 98  1 23 23 17 59.9950000  0  8G15G27G26G 2G 9G 7G 4G13
  22404874.507    -7045679.91749  -5226689.11045  22404875.278    22404879.646
       214.000         153.000
  20085032.356     -842049.83949   -650598.16247  20085032.551    20085037.295
       236.000         195.000
  21504095.602   -10651429.23849  -8286654.05946  21504095.624    21504101.099
       229.000         178.000
  19983633.388    -6706423.89349  -5205578.99347  19983632.939    19983638.127
       246.000         212.000
  23141740.434    -5164721.28049  -3637257.94045  23141739.597    23141745.326
       212.000         144.000
  18943646.855   -11887125.65849  -9242083.31748  18943646.277    18943651.372
       245.000         218.000
  22659209.127   -11534649.62749  -8259132.75545  22659209.156    22659214.576
       210.000         146.000
  22996083.265     6796371.12549   5293148.94345  22996084.562    22996090.727
       209.000         138.000
 98  1 23 23 18 29.9950000  0  8G15G27G26G 2G 9G 7G 4G13
  22404499.534    -7047651.32949  -5228225.29145  22404499.308    22404505.347
       211.000         152.000
  20091478.080     -808177.34849   -624204.03447  20091477.909    20091483.053
       235.000         195.000
  21498321.152   -10681774.34249  -8310299.60746  21498321.262    21498327.672
       228.000         178.000
  19978092.922    -6735539.30749  -5228266.33747  19978092.654    19978097.830
       246.000         212.000
  23114561.520    -5307547.70349  -3748551.28045  23114561.252    23114567.065
       209.000         142.000
  18935432.340   -11930292.94649  -9275720.15748  18935431.753    18935436.910
       245.000         218.000
  22631201.382   -11681831.28649  -8373819.68045  22631201.345    22631207.569
       211.000         147.000
  23007411.827     6855902.81649   5339537.18045  23007412.820    23007419.691
       207.000         136.000
 98  1 23 23 18 59.9950000  0  8G15G27G26G 2G 9G 7G 4G13
  22404256.591    -7048928.08349  -5229220.16545  22404255.667    22404263.251
       210.000         150.000
  20098025.851     -773768.53449   -597391.99047  20098025.886    20098031.349
       235.000         195.000
  21492667.226   -10711485.57949  -8333451.23246  21492667.566    21492673.235
       228.000         178.000
  19972612.576    -6764338.82649  -5250707.52947  19972612.118    19972617.373
       246.000         212.000
  23087425.514    -5450147.75949  -3859668.13445  23087425.988    23087432.247
       212.000         146.000
  18927331.873   -11972861.35449  -9308890.34048  18927331.481    18927336.376
       244.000         218.000
  22603225.708   -11828844.62749  -8488375.44545  22603225.463    22603232.825
       210.000         148.000
  23018756.608     6915519.60449   5385991.69945  23018755.017    23018763.828
       205.000         134.000
 98  1 23 23 19 29.9950000  0  8G15G27G26G 2G 9G 7G 4G13
  22404128.161    -7049602.40749  -5229745.63945  22404127.865    22404132.884
       213.000         148.000
  20104659.750     -738907.38049   -570227.47747  20104659.424    20104664.677
       235.000         195.000
  21487119.334   -10740639.84649  -8356168.84646  21487120.056    21487125.141
       229.000         179.000
  19967177.738    -6792899.14049  -5272962.32647  19967177.391    19967182.694
       246.000         212.000
  23060318.500    -5592596.09549  -3970666.85445  23060316.685    23060323.538
       211.000         141.000
  18919329.673   -12014913.13949  -9341657.95648  18919329.211    18919334.248
       244.000         218.000
  22575265.419   -11975776.22149  -8602867.51245  22575265.529    22575270.823
       214.000         149.000
  23030101.950     6975139.53749   5432448.69545  23030101.772    23030106.880
       206.000         134.000
 98  1 23 23 19 59.9950000  0  8G15G27G26G 2G 9G 7G 4G13
  22404115.541    -7049669.05949  -5229797.59945  22404115.514    22404120.351
       212.000         149.000
  20111383.150     -703575.72049   -542696.33347  20111383.019    20111388.409
       234.000         194.000
  21481681.282   -10769217.70349  -8378437.31246  21481681.641    21481687.227
       228.000         178.000
  19961791.270    -6821205.46449  -5295019.21147  19961790.960    19961796.222
       246.000         212.000
  23033237.523    -5734907.58849  -4081558.88245  23033237.751    23033243.807
       213.000         144.000
  18911427.703   -12056438.16949  -9374015.11948  18911427.101    18911432.199
       244.000         218.000
  22547322.688   -12122616.27349  -8717288.25045  22547323.073    22547329.566
       213.000         151.000
  23041448.764     7034766.75249   5478911.34245  23041449.666    23041455.615
       201.000         134.000
 98  1 23 23 20 29.9950000  0  8G15G27G26G 2G 9G 7G 4G13
  22404221.776    -7049111.27149  -5229362.98245  22404222.899    22404228.384
       213.000         150.000
  20118202.511     -667739.83049   -514772.28447  20118202.698    20118207.463
       234.000         194.000
  21476356.284   -10797200.74949  -8400242.30046  21476356.638    21476361.959
       228.000         178.000
  19956453.943    -6849253.41049  -5316874.76147  19956453.425    19956458.674
       245.000         212.000
  23006186.538    -5877061.21549  -4192327.90445  23006186.608    23006191.917
       212.000         144.000
  18903627.035   -12097430.90949  -9405957.50848  18903626.562    18903631.608
       245.000         218.000
  22519401.875   -12269340.48449  -8831618.69245  22519401.813    22519409.286
       216.000         152.000
  23052796.808     7094401.00449   5525379.50245  23052796.121    23052803.027
       204.000         133.000
 98  1 23 23 20 59.9950000  0  8G15G27G26G 2G 9G 7G 4G13
  22404443.359    -7047946.55949  -5228455.43145  22404443.936    22404450.393
       213.000         149.000
  20125116.086     -631409.00949   -486462.56847  20125116.212    20125121.520
       234.000         194.000
  21471141.632   -10824603.83149  -8421595.35746  21471142.228    21471147.686
       228.000         179.000
  19951159.235    -6877077.16749  -5338555.61947  19951158.790    19951164.040
       245.000         212.000
  22979162.866    -6019071.05349  -4302984.83445  22979163.316    22979168.663
       208.000         145.000
  18895921.773   -12137922.32749  -9437509.25948  18895921.326    18895926.523
       244.000         218.000
  22491500.566   -12415963.14349  -8945870.05045  22491500.938    22491508.393
       213.000         153.000
  23064140.969     7154015.16649   5571831.96645  23064142.426    23064146.853
       199.000         133.000
 98  1 23 23 21 29.9950000  0  7G15G27G26G 2G 9G 7G 4
  22404781.246    -7046170.55849  -5227071.56745  22404781.952    22404787.497
       212.000         148.000
  20132125.118     -594576.25849   -457761.74547  20132125.060    20132130.144
       234.000         193.000
  21466039.785   -10851413.74249  -8442486.19446  21466040.539    21466045.552
       229.000         179.000
  19945906.391    -6904681.00249  -5360065.10747  19945905.947    19945911.044
       246.000         212.000
  22952165.699    -6160942.01949  -4413533.62545  22952166.226    22952171.761
       210.000         144.000
  18888309.461   -12177925.28949  -9468680.39748  18888308.966    18888313.896
       245.000         218.000
  22463619.581   -12562477.80849  -9060037.20345  22463618.740    22463626.920
       213.000         153.000
 98  1 23 23 21 59.9950000  0  7G15G27G26G 2G 9G 7G 4
  22405230.843    -7043807.66049  -5225230.35245  22405230.742    22405235.764
       208.000         146.000
  20139222.391     -557279.89449   -428699.66347  20139222.676    20139227.441
       234.000         193.000
  21461042.270   -10877675.83649  -8462950.16946  21461042.549    21461047.627
       228.000         178.000
  19940689.650    -6932095.18949  -5381426.81747  19940689.138    19940694.521
       246.000         212.000
  22925188.241    -6302709.47649  -4524001.66445  22925187.693    22925194.138
       211.000         146.000
  18880784.130   -12217471.11249  -9499495.32248  18880783.486    18880788.523
       244.000         218.000
  22435755.891   -12708901.95949  -9174133.83045  22435755.849    22435763.341
       215.000         155.000
 98  1 23 23 22 29.9950000  0  7G15G27G26G 2G 9G 7G 4
  22405795.031    -7040842.62749  -5222919.99545  22405795.790    22405800.656
       213.000         146.000
  20146411.396     -519501.66349   -399262.10047  20146411.160    20146416.315
       234.000         193.000
  21456147.036   -10903401.07149  -8482995.81646  21456147.088    21456152.736
       228.000         178.000
  19935512.100    -6959303.55549  -5402628.14747  19935511.662    19935516.986
       245.000         212.000
  22898238.162    -6444332.99549  -4634357.63745  22898236.920    22898242.739
       209.000         144.000
  18873348.923   -12256543.20249  -9529941.10548  18873348.333    18873353.534
       244.000         218.000
  22407912.038   -12855221.55049  -9288148.97245  22407912.235    22407919.979
       216.000         155.000
 98  1 23 23 22 59.9950000  0  7G15G27G26G 2G 9G 7G 4
  22406474.919    -7037270.87849  -5220136.79945  22406474.760    22406483.189
       210.000         148.000
  20153690.269     -481251.23649   -369456.59247  20153690.241    20153695.242
       234.000         192.000
  21451354.651   -10928584.77749  -8502619.48446  21451354.546    21451359.479
       227.000         178.000
  19930378.039    -6986283.11649  -5423651.18747  19930377.567    19930382.833
       245.000         212.000
  22871317.888    -6585798.88849  -4744590.72245  22871318.196    22871323.541
       211.000         145.000
  18866006.210   -12295129.42849  -9560008.29248  18866005.816    18866010.819
       245.000         218.000
  22380092.476   -13001414.08549  -9402065.13945  22380092.364    22380100.056
       213.000         156.000
 98  1 23 23 23 29.9950000  0  7G15G27G26G 2G 9G 7G 4
  22407272.549    -7033079.66649  -5216870.93045  22407273.467    22407278.619
       211.000         146.000
  20161059.416     -442526.11649   -339281.19947  20161059.079    20161064.303
       234.000         192.000
  21446667.761   -10953214.04049  -8521811.12546  21446667.651    21446673.390
       227.000         178.000
  19925294.615    -7012996.64649  -5444466.93047  19925294.076    19925299.191
       245.000         212.000
  22844430.653    -6727091.85849  -4854689.08945  22844430.110    22844436.584
       210.000         146.000
  18858758.992   -12333213.79149  -9589684.42048  18858758.663    18858763.565
       244.000         218.000
  22352300.108   -13147463.46649  -9515869.70945  22352299.595    22352307.358
       217.000         156.000
 98  1 23 23 23 59.9950000  0  7G15G27G26G 2G 9G 7G 4
  22408182.444    -7028298.39549  -5213145.32445  22408183.038    22408186.490
       213.000         145.000
  20168513.933     -403352.36749   -308756.22347  20168513.689    20168518.847
       233.000         192.000
  21442080.071   -10977322.83449  -8540597.20246  21442080.616    21442085.865
       229.000         179.000
  19920257.034    -7039469.31849  -5465094.99147  19920256.783    19920261.968
       246.000         212.000
  22817572.194    -6868234.31349  -4964670.15345  22817571.974    22817578.869
       213.000         148.000
  18851603.899   -12370814.35049  -9618983.55648  18851603.516    18851608.551
       244.000         218.000
  22324529.472   -13293398.99049  -9629585.57445  22324529.430    22324536.801
       217.000         157.000
 98  1 23 23 24 29.9950000  0  7G15G27G26G 2G 9G 7G 4
  22409216.661    -7022864.15149  -5208910.85245  22409215.463    22409223.637
       210.000         145.000
  20176066.768     -363661.97749   -277828.66647  20176066.450    20176071.820
       234.000         192.000
  21437607.008   -11000829.49149  -8558914.07946  21437607.413    21437613.057
       227.000         178.000
  19915275.895    -7065645.61949  -5485492.11047  19915275.432    19915280.710
       245.000         212.000
  22790755.372    -7009157.24549  -5074480.18245  22790755.298    22790761.328
       213.000         147.000
  18844553.376   -12407865.03949  -9647854.21948  18844552.788    18844557.900
       244.000         218.000
  22296793.092   -13439154.68449  -9743161.31945  22296793.891    22296799.505
       217.000         157.000
 98  1 23 23 24 59.9950000  0  7G15G27G26G 2G 9G 7G 4
  22410377.239    -7016765.23249  -5204158.44545  22410375.300    22410385.032
       207.000         144.000
  20183717.955     -323454.92149   -246498.51947  20183717.633    20183723.172
       233.000         191.000
  21433254.106   -11023703.80249  -8576738.22346  21433254.756    21433259.703
       228.000         178.000
  19910351.562    -7091523.20149  -5505656.46247  19910351.011    19910356.299
       245.000         211.000
  22763979.595    -7149864.33549  -5184121.98345  22763978.885    22763986.123
       209.000         149.000
  18837608.947   -12444358.24749  -9676290.48448  18837608.545    18837613.545
       244.000         218.000
  22269094.026   -13584714.13749  -9856584.14445  22269093.727    22269100.512
       215.000         158.000
 98  1 23 23 25 29.9950000  0  7G15G27G26G 2G 9G 7G 4
  22411658.445    -7010032.01649  -5198911.82045  22411657.063    22411664.309
       209.000         143.000
  20191462.973     -282755.03149   -214784.35247  20191463.311    20191468.244
       233.000         191.000
  21429015.166   -11045980.05149  -8594096.34946  21429015.421    21429020.873
       228.000         178.000
  19905478.588    -7117130.84649  -5525610.47647  19905478.064    19905483.168
       245.000         211.000
  22737238.864    -7290387.73049  -5293620.69445  22737237.998    22737244.790
       211.000         148.000
  18830766.029   -12480318.12749  -9704311.16748  18830765.542    18830770.679
       244.000         218.000
  22241422.446   -13730129.13749  -9969894.38445  22241422.374    22241428.965
       217.000         158.000
 98  1 23 23 25 59.9950000  0  7G15G27G26G 2G 9G 7G 4
  22413044.141    -7002749.75249  -5193237.37145  22413043.303    22413050.292
       204.000         144.000
  20199285.649     -241646.81949   -182752.00447  20199285.406    20199290.708
       233.000         191.000
  21424873.967   -11067741.86949  -8611053.61746  21424874.388    21424879.727
       229.000         178.000
  19900638.406    -7142566.28149  -5545430.29847  19900638.005    19900643.326
       245.000         211.000
  22710518.126    -7430805.68149  -5403037.18645  22710519.385    22710525.379
       216.000         151.000
  18824009.700   -12515822.92949  -9731977.24348  18824009.240    18824014.195
       244.000         218.000
  22213762.997   -13875479.52749 -10083154.28645  22213764.241    22213769.400
       219.000         158.000
 98  1 23 23 26 29.9950000  0  7G15G27G26G 2G 9G 7G 4
  22414533.908    -6994921.43949  -5187137.39845  22414535.940    22414540.300
       213.000         144.000
  20207185.422     -200133.25149   -150403.79947  20207185.537    20207190.407
       232.000         190.000
  21420830.569   -11088989.81149  -8627610.46546  21420830.997    21420836.107
       227.000         178.000
  19895830.804    -7167830.30249  -5565116.55247  19895830.353    19895835.553
       245.000         211.000
  22683817.570    -7571118.24349  -5512371.59545  22683817.140    22683824.864
       212.000         152.000
  18817337.757   -12550884.32349  -9759297.80748  18817337.388    18817342.247
       244.000         218.000
  22186116.309   -14020763.61149 -10196362.54545  22186115.582    22186123.029
       215.000         158.000
 98  1 23 23 26 59.9950000  0  7G15G27G26G 2G 9G 7G 4
  22416142.232    -6986471.12949  -5180552.74445  22416142.318    22416147.732
       210.000         142.000
  20215177.231     -158136.09249   -117678.76547  20215177.164    20215182.354
       232.000         190.000
  21416898.164   -11109654.75049  -8643713.02446  21416898.919    21416904.335
       227.000         178.000
  19891072.984    -7192833.06049  -5584599.22647  19891072.647    19891077.815
       245.000         211.000
  22657152.676    -7711242.87249  -5621559.53945  22657151.171    22657158.319
       213.000         151.000
  18810763.343   -12585433.12849  -9786218.94748  18810762.910    18810767.904
       244.000         218.000
  22158496.121   -14165908.31049 -10309462.15945  22158495.793    22158501.528
       217.000         157.000
 98  1 23 23 27 29.9950000  0  7G15G27G26G 2G 9G 7G 4
  22417853.711    -6977477.16849  -5173544.44145  22417851.914    22417859.508
       205.000         141.000
  20223247.087     -115728.96949    -84634.28147  20223247.367    20223252.184
       232.000         190.000
  21413061.755   -11129815.58949  -8659422.77146  21413062.355    21413067.528
       228.000         178.000
  19886351.650    -7217643.85849  -5603932.31747  19886351.156    19886356.374
       245.000         211.000
  22630510.993    -7851245.95949  -5730652.81845  22630511.883    22630516.608
       213.000         153.000
  18804272.408   -12619543.07549  -9812798.12248  18804271.953    18804276.938
       244.000         218.000
  22130888.871   -14310984.91649 -10422508.74045  22130889.584    22130894.410
       217.000         157.000
 98  1 23 23 27 59.9950000  0  7G15G27G26G 2G 9G 7G 4
  22419689.499    -6967828.11649  -5166025.77445  22419687.873    22419695.480
       206.000         139.000
  20231415.660      -72802.85749    -51185.38647  20231415.333    20231420.651
       232.000         189.000
  21409343.314   -11149356.43249  -8674649.40246  21409342.950    21409348.809
       228.000         178.000
  19881685.816    -7242163.00849  -5623038.15347  19881685.366    19881690.431
       245.000         211.000
  22603914.179    -7991012.66949  -5839561.87145  22603913.936    22603918.682
       216.000         152.000
  18797884.754   -12653110.46749  -9838954.52448  18797884.186    18797889.235
       244.000         218.000
  22103320.431   -14455857.18349 -10535396.08345  22103319.770    22103325.988
       216.000         157.000
 98  1 23 23 28 29.9950000  0  7G15G27G26G 2G 9G 7G 4
  22421646.758    -6957542.67349  -5158011.14845  22421647.406    22421654.706
       212.000         143.000
  20239678.811      -29379.75049    -17349.22747  20239678.512    20239683.717
       232.000         189.000
  21405739.140   -11168296.74649  -8689408.10046  21405739.715    21405744.724
       228.000         178.000
  19877072.825    -7266404.29749  -5641927.47547  19877072.369    19877077.620
       245.000         211.000
  22577360.201    -8130554.97149  -5948296.11845  22577360.598    22577366.437
       212.000         153.000
  18791596.039   -12686157.69549  -9864705.60548  18791595.349    18791600.344
       245.000         218.000
  22075787.039   -14600545.40449 -10648140.06245  22075788.330    22075792.619
       218.000         157.000
 98  1 23 23 28 59.9950000  0  7G15G27G26G 2G 9G 7G 4
  22423710.515    -6946698.66949  -5149561.32445  22423710.848    22423716.258
       213.000         145.000
  20248020.909       14458.32749     16810.28447  20248020.987    20248026.039
       232.000         189.000
  21402233.428   -11186719.32549  -8703763.36846  21402234.182    21402239.273
       228.000         178.000
  19872496.625    -7290452.39449  -5660666.25747  19872496.217    19872501.673
       244.000         211.000
  22550835.906    -8269940.35849  -6056908.05245  22550833.853    22550840.462
       213.000         153.000
  18785393.708   -12718751.11949  -9890103.07748  18785393.423    18785398.326
       244.000         218.000
  22048274.334   -14745125.29449 -10760799.61245  22048272.988    22048278.863
       214.000         156.000
 98  1 23 23 29 29.9950000  0  7G15G27G26G 2G 9G 7G 4
  22425874.326    -6935328.66749  -5140701.57345  22425873.461    22425879.767
       209.000         140.000
  20256433.995       58669.34249     51260.39847  20256434.212    20256438.976
       232.000         188.000
  21398819.727   -11204659.17949  -8717742.49346  21398820.115    21398825.272
       228.000         178.000
  19867950.658    -7314341.74749  -5679281.34247  19867950.344    19867955.549
       245.000         211.000
  22524337.403    -8409190.37949  -6165414.49645  22524339.244    22524343.328
       214.000         155.000
  18779273.168   -12750914.96249  -9915165.80848  18779272.830    18779277.790
       244.000         218.000
  22020778.993   -14889613.87449 -10873388.02345  22020778.422    22020783.422
       218.000         155.000
 98  1 23 23 29 59.9950000  0  7G15G27G26G 2G 9G 7G 4
  22428146.599    -6923385.75449  -5131395.43945  22428143.849    22428151.363
       203.000         136.000
  20264927.057      103300.44449     86037.85347  20264927.333    20264932.218
       232.000         188.000
  21395504.158   -11222082.61449  -8731319.20146  21395504.141    21395510.101
       228.000         178.000
  19863443.081    -7338029.20049  -5697739.10047  19863442.815    19863447.958
       245.000         211.000
  22497873.444    -8548259.37949  -6273779.88845  22497872.427    22497879.489
       215.000         154.000
  18773243.211   -12782602.59249  -9939857.46248  18773242.744    18773247.767
       244.000         218.000
  21993309.432   -15033967.16049 -10985871.03645  21993309.069    21993316.268
       214.000         156.000
 98  1 23 23 30 29.9950000  0  7G15G27G26G 2G 9G 7G 4
  22430545.736    -6910777.45649  -5121570.79745  22430545.037    22430553.339
       205.000         137.000
  20273518.821      148450.33349    121219.55847  20273518.785    20273523.983
       231.000         188.000
  21392302.957   -11238904.83249  -8744427.43346  21392303.317    21392308.632
       227.000         178.000
  19858993.158    -7361413.87149  -5715960.92647  19858992.815    19858998.234
       245.000         210.000
  22471464.494    -8687039.33049  -6381920.04445  22471464.129    22471471.046
       212.000         155.000
  18767322.695   -12813715.30249  -9964101.13048  18767322.233    18767327.311
       244.000         218.000
  21965882.727   -15178094.45249 -11098177.90545  21965882.376    21965889.915
       216.000         155.000
 98  1 23 23 30 59.9950000  0  7G15G27G26G 2G 9G 7G 4
  22433053.253    -6897602.15249  -5111304.36145  22433056.008    22433060.935
       215.000         144.000
  20282189.863      194016.75449    156725.83347  20282189.892    20282194.910
       231.000         188.000
  21389198.558   -11255219.01449  -8757139.79746  21389199.146    21389204.092
       227.000         178.000
  19854582.822    -7384590.30349  -5734020.48747  19854582.389    19854587.704
       244.000         210.000
  22445090.699    -8825634.53549  -6489916.22345  22445091.147    22445097.882
       214.000         156.000
  18761492.790   -12844351.72149  -9987973.66348  18761492.229    18761497.194
       244.000         218.000
  21938484.987   -15322070.25649 -11210366.78345  21938485.033    21938491.213
       216.000         156.000
 98  1 23 23 31 29.9950000  0  7G15G27G26G 2G 9G 7G 4
  22435657.193    -6883919.99949  -5100642.99745  22435656.768    22435663.691
       211.000         144.000
  20290928.673      239939.35649    192509.65247  20290928.722    20290934.204
       231.000         188.000
  21386181.483   -11271074.05049  -8769494.38846  21386181.944    21386186.574
       228.000         178.000
  19850203.327    -7407604.73649  -5751953.81847  19850202.811    19850208.023
       245.000         210.000
  22418739.457    -8964111.08849  -6597819.95145  22418738.970    22418745.628
       214.000         156.000
  18755741.202   -12874576.45149 -10011525.40348  18755740.501    18755745.338
       244.000         218.000
  21911107.657   -15465939.13149 -11322472.30945  21911107.506    21911113.432
       218.000         156.000
 98  1 23 23 31 59.9950000  0  7G15G27G26G 2G 9G 7G 4
  22438358.870    -6869720.53249  -5089578.51445  22438356.639    22438365.240
       204.000         139.000
  20299741.855      286252.67449    228597.93346  20299741.781    20299746.947
       231.000         187.000
  21383254.738   -11286453.72349  -8781478.55446  21383254.711    21383259.951
       228.000         177.000
  19845858.626    -7430436.26549  -5769744.61647  19845858.218    19845863.785
       244.000         210.000
  22392411.329    -9102465.89249  -6705628.81145  22392412.216    22392417.720
       213.000         156.000
  18750069.790   -12904379.76049 -10034748.75848  18750069.297    18750074.127
       244.000         218.000
  21883753.758   -15609684.61549 -11434481.72845  21883753.333    21883759.687
       216.000         157.000
 98  1 23 23 32 29.9950000  0  7G15G27G26G 2G 9G 7G 4
  22441159.715    -6855001.69749  -5078109.28445  22441159.339    22441165.895
       203.000         137.000
  20308629.268      332956.47049    264990.47246  20308628.949    20308634.498
       232.000         187.000
  21380423.167   -11301333.70249  -8793073.36546  21380423.681    21380428.477
       228.000         177.000
  19841551.256    -7453071.62949  -5787382.56647  19841550.830    19841556.197
       244.000         210.000
  22366108.629    -9240686.71949  -6813333.24445  22366106.956    22366115.015
       215.000         155.000
  18744478.839   -12933760.46849 -10057642.81648  18744478.288    18744483.435
       244.000         218.000
  21856428.191   -15753280.95249 -11546374.90745  21856429.289    21856434.204
       219.000         157.000
 98  1 23 23 32 59.9940000  0  7G15G27G26G 2G 9G 7G 4
  22444059.082    -6839766.68549  -5066237.89645  22444060.910    22444063.032
       214.000         139.000
  20317590.381      380047.30549    301684.60846  20317590.315    20317595.812
       230.000         186.000
  21377689.513   -11315699.42549  -8804267.43646  21377689.783    21377694.789
       227.000         177.000
  19837282.180    -7475505.89749  -5804863.81247  19837281.846    19837286.845
       244.000         210.000
  22339830.603    -9378778.93449  -6920937.51145  22339831.227    22339834.964
       212.000         156.000
  18738967.939   -12962720.47249 -10080209.04748  18738967.443    18738972.471
       244.000         218.000
  21829130.933   -15896728.95549 -11658152.49845  21829130.607    21829137.745
       217.000         158.000
 98  1 23 23 33 29.9940000  0  7G15G27G26G 2G 9G 7G 4
  22447067.642    -6823956.74949  -5053918.47945  22447066.899    22447077.547
       209.000         141.000
  20326641.172      427609.50249    338746.03346  20326641.859    20326646.055
       230.000         186.000
  21375062.842   -11329502.49749  -8815023.10046  21375063.302    21375068.514
       228.000         177.000
  19833063.708    -7497674.06149  -5822137.71147  19833063.346    19833068.597
       244.000         210.000
  22313587.262    -9516688.09749  -7028399.11945  22313586.286    22313591.938
       217.000         156.000
  18733548.534   -12991199.67649 -10102400.63948  18733548.065    18733553.033
       244.000         218.000
  21801867.181   -16039999.98749 -11769792.17345  21801868.171    21801873.920
       219.000         159.000
 98  1 23 23 33 59.9940000  0  7G15G27G26G 2G 9G 7G 4
  22450197.642    -6807507.74049  -5041101.11345  22450196.882    22450201.912
       210.000         139.000
  20335793.839      475706.84949    376224.45746  20335793.863    20335799.040
       230.000         186.000
  21372555.450   -11342679.48149  -8825290.89746  21372555.867    21372560.909
       226.000         177.000
  19828908.979    -7519507.60249  -5839150.86047  19828908.672    19828913.641
       244.000         209.000
  22287395.421    -9654326.82349  -7135650.02145  22287396.057    22287403.044
       213.000         156.000
  18728232.151   -13019137.40249 -10124170.29148  18728231.755    18728236.657
       244.000         218.000
  21774648.612   -16183033.85549 -11881247.05045  21774648.365    21774654.447
       220.000         159.000
 98  1 23 23 34 29.9940000  0  7G15G27G26G 2G 9G 7G 4
  22453430.803    -6790518.91749  -5027863.08145  22453428.675    22453436.536
       205.000         141.000
  20345023.622      524209.70349    414018.86446  20345023.303    20345029.063
       230.000         185.000
  21370147.447   -11355333.24049  -8835150.98146  21370148.324    21370153.211
       227.000         177.000
  19824798.226    -7541109.81649  -5855983.75347  19824797.678    19824802.971
       244.000         209.000
  22261237.811    -9791785.28449  -7242760.36345  22261237.216    22261245.208
       214.000         155.000
  18722998.501   -13046640.36249 -10145601.16748  18722998.248    18723003.059
       244.000         218.000
  21747455.237   -16325935.90749 -11992599.20745  21747454.970    21747461.091
       219.000         160.000
 98  1 23 23 34 59.9940000  0  7G15G27G26G 2G 9G 7G 4
  22456765.466    -6772995.20749  -5014208.20845  22456765.245    22456773.868
       211.000         141.000
  20354330.136      573115.48949    452127.23546  20354329.971    20354335.190
       230.000         185.000
  21367835.094   -11367485.15949  -8844620.03046  21367835.335    21367840.738
       227.000         177.000
  19820731.139    -7562482.47349  -5872637.77347  19820730.844    19820736.062
       244.000         209.000
  22235113.687    -9929068.31149  -7349734.10945  22235114.980    22235119.676
       214.000         156.000
  18717846.654   -13073713.57549 -10166697.17248  18717846.285    18717851.273
       244.000         218.000
  21720283.311   -16468724.92349 -12103863.25645  21720283.101    21720289.290
       219.000         161.000
 98  1 23 23 35 29.9940000  0  7G15G27G26G 2G 9G 7G 4
  22460205.535    -6754917.19249  -5000121.54145  22460205.813    22460208.514
       212.000         140.000
  20363715.531      622435.95549    490558.73746  20363716.113    20363720.904
       229.000         185.000
  21365619.273   -11379128.68849  -8853692.92346  21365620.169    21365624.539
       227.000         177.000
  19816712.349    -7583601.30049  -5889093.99947  19816711.856    19816717.073
       244.000         209.000
  22209027.975   -10066149.69049  -7456550.68445  22209026.711    22209032.165
       215.000         155.000
  18712780.254   -13100337.82849 -10187443.34048  18712779.702    18712784.852
       244.000         218.000
  21693140.392   -16611361.58249 -12215008.60345  21693140.311    21693147.175
       219.000         162.000
 98  1 23 23 35 59.9940000  0  7G15G27G26G 2G 9G 7G 4
  22463743.816    -6736322.79149  -4985632.43645  22463745.163    22463752.116
       214.000         142.000
  20373167.103      672104.19949    529261.24046  20373167.430    20373172.174
       229.000         184.000
  21363493.407   -11390300.40649  -8862398.17746  21363493.351    21363499.340
       226.000         177.000
  19812732.898    -7604513.32449  -5905389.08547  19812732.561    19812737.631
       244.000         209.000
  22182973.939   -10203064.62949  -7563237.64745  22182973.067    22182979.195
       207.000         155.000
  18707790.925   -13126556.54549 -10207873.50548  18707790.226    18707795.315
       244.000         218.000
  21666024.080   -16753858.24249 -12326044.85346  21666025.043    21666030.172
       220.000         163.000
 98  1 23 23 36 29.9940000  0  7G15G27G26G 2G 9G 7G 4
  22467363.641    -6717301.50549  -4970810.59945  22467361.559    22467371.690
       206.000         139.000
  20382668.178      722032.55249    568166.42246  20382667.973    20382673.187
       230.000         184.000
  21361438.033   -11401101.69749  -8870814.78046  21361438.724    21361444.056
       226.000         177.000
  19808773.342    -7625321.15649  -5921602.97847  19808773.112    19808778.136
       244.000         209.000
  22156930.126   -10339925.22449  -7669882.17145  22156933.154    22156938.898
       219.000         156.000
  18702863.910   -13152448.04349 -10228048.69648  18702863.497    18702868.474
       244.000         218.000
  21638921.070   -16896285.12249 -12437026.71846  21638920.927    21638926.776
       221.000         164.000
 98  1 23 23 36 59.9940000  0  7G15G27G26G 2G 9G 7G 4
  22471081.444    -6697765.23849  -4955587.56045  22471079.645    22471085.010
       207.000         141.000
  20392238.335      772324.08349    607354.59246  20392238.397    20392243.772
       229.000         184.000
  21359468.962   -11411449.09049  -8878877.70346  21359469.477    21359474.149
       227.000         176.000
  19804850.322    -7645936.56949  -5937666.94147  19804849.728    19804855.049
       244.000         209.000
  22130913.442   -10476643.79349  -7776416.05245  22130911.679    22130917.653
       215.000         155.000
  18698018.698   -13177910.04249 -10247889.21548  18698018.281    18698023.397
       244.000         218.000
  21611851.174   -17038537.93749 -12547872.97846  21611852.006    21611856.657
       220.000         164.000
 98  1 23 23 37 29.9940000  0  7G15G27G26G 2G 9G 7G 4
  22474861.748    -6677898.93449  -4940107.33945  22474863.925    22474870.888
       215.000         146.000
  20401842.333      822793.26749    646681.20146  20401842.159    20401847.697
       229.000         183.000
  21357551.491   -11421525.87349  -8886729.75846  21357552.634    21357557.430
       227.000         176.000
  19800928.033    -7666548.31749  -5953728.04347  19800927.633    19800932.774
       243.000         209.000
  22104888.619   -10613404.94849  -7882983.18445  22104886.995    22104892.797
       209.000         155.000
  18693218.159   -13203137.07049 -10267546.63748  18693217.675    18693222.593
       244.000         217.000
  21584782.605   -17180784.03849 -12658713.98746  21584783.026    21584788.047
       223.000         165.000
 98  1 23 23 37 59.9940000  0  7G15G27G26G 2G 9G 7G 4
  22478720.025    -6657623.55249  -4924308.40145  22478720.306    22478722.961
       215.000         141.000
  20411497.409      873530.67449    686216.80646  20411497.095    20411502.559
       229.000         183.000
  21355701.172   -11431249.54649  -8894306.66646  21355701.865    21355706.949
       227.000         176.000
  19797021.404    -7687077.95149  -5969725.16147  19797021.127    19797026.256
       244.000         209.000
  22078870.529   -10750130.72449  -7989522.70845  22078872.475    22078878.436
       215.000         156.000
  18688476.360   -13228055.47249 -10286963.57048  18688476.007    18688480.974
       244.000         217.000
  21557728.896   -17322951.75049 -12769493.94746  21557728.825    21557734.608
       222.000         165.000
 98  1 23 23 38 29.9940000  0  7G15G27G26G 2G 9G 7G 4
  22482671.635    -6636858.44249  -4908127.81145  22482670.341    22482678.719
       209.000         143.000
  20421222.270      924635.13049    726038.43246  20421222.272    20421227.562
       230.000         183.000
  21353933.800   -11440537.28549  -8901543.88046  21353934.439    21353939.918
       227.000         176.000
  19793146.740    -7707439.50249  -5985591.30747  19793146.250    19793151.679
       244.000         209.000
  22052878.364   -10886720.81849  -8095956.46345  22052879.000    22052884.620
       217.000         157.000
  18683809.120   -13252582.14149 -10306075.26048  18683808.688    18683813.734
       244.000         217.000
  21530703.836   -17464968.99049 -12880156.65146  21530704.274    21530710.313
       222.000         166.000
 98  1 23 23 38 59.9940000  0  7G15G27G26G 2G 9G 7G 4
  22486716.097    -6615605.18349  -4891566.74545  22486714.541    22486724.319
       208.000         141.000
  20431016.993      976106.64349    766146.06546  20431016.971    20431022.150
       229.000         183.000
  21352250.948   -11449381.00249  -8908435.10446  21352251.404    21352256.978
       226.000         176.000
  19789306.672    -7727619.29449  -6001315.82047  19789306.238    19789311.605
       244.000         209.000
  22026918.483   -11023140.66149  -8202257.62945  22026918.502    22026922.517
       217.000         157.000
  18679213.438   -13276732.63549 -10324893.82448  18679213.140    18679217.945
       244.000         217.000
  21503707.189   -17606837.23549 -12990703.24346  21503707.003    21503713.882
       222.000         166.000
 98  1 23 23 39 29.9940000  0  7G15G27G26G 2G 9G 7G 4
  22490855.232    -6593852.86549  -4874617.00745  22490860.461    22490857.336
       215.000         143.000
  20440884.109     1027958.54949    806550.11346  20440884.100    20440889.689
       229.000         182.000
  21350657.128   -11457756.49249  -8914961.47946  21350657.497    21350662.493
       227.000         176.000
  19785502.484    -7747610.33949  -6016893.26147  19785502.172    19785507.285
       242.000         209.000
  22000995.373   -11159367.38749  -8308408.26345  22000995.148    22001002.203
       216.000         158.000
  18674688.946   -13300509.16549 -10343420.99248  18674688.522    18674693.494
       244.000         217.000
  21476740.207   -17748549.04849 -13101127.97746  21476740.252    21476745.417
       222.000         166.000
 98  1 23 23 39 59.9940000  0  7G15G27G26G 2G 9G 7G 4
  22495088.353    -6571607.25549  -4857282.75745  22495090.023    22495096.942
       212.000         144.000
  20450821.139     1080177.97849    847240.54946  20450821.201    20450826.513
       229.000         182.000
  21349150.674   -11465673.10549  -8921130.28646  21349151.070    21349156.418
       227.000         176.000
  19781732.570    -7767421.38849  -6032330.44547  19781731.982    19781737.423
       242.000         208.000
  21975111.058   -11295389.89849  -8414399.78845  21975109.718    21975115.120
       216.000         158.000
  18670237.350   -13323902.26349 -10361649.37548  18670237.024    18670241.935
       244.000         217.000
  21449802.462   -17890107.91649 -13211433.52246  21449802.611    21449808.353
       222.000         167.000
 98  1 23 23 40 29.9940000  0  7G15G27G26G 2G 9G 7G 4
  22499417.308    -6548859.09549  -4839556.93545  22499416.238    22499422.393
       208.000         142.000
  20460827.143     1132759.64049    888213.23246  20460827.644    20460832.680
       227.000         182.000
  21347732.086   -11473128.11349  -8926939.40046  21347732.872    21347737.424
       226.000         176.000
  19777998.875    -7787042.16549  -6047619.36647  19777998.606    19778003.741
       243.000         208.000
  21949269.630   -11431187.58849  -8520216.13345  21949269.377    21949275.236
       217.000         159.000
  18665860.672   -13346901.73149 -10379571.03448  18665860.174    18665865.156
       244.000         217.000
  21422898.278   -18031490.08149 -13321601.39546  21422897.707    21422904.235
       221.000         167.000
 98  1 23 23 40 59.9940000  0  7G15G27G26G 2G 9G 7G 4
  22503840.742    -6525614.28749  -4821444.08045  22503837.637    22503846.623
       205.000         144.000
  20470900.546     1185695.43249    929461.86546  20470900.550    20470905.814
       228.000         182.000
  21346400.516   -11480125.30149  -8932391.78246  21346401.044    21346406.562
       227.000         176.000
  19774302.610    -7806466.07349  -6062754.88647  19774302.315    19774307.566
       242.000         208.000
  21923464.743   -11566792.69949  -8625882.39845  21923465.910    21923469.843
       219.000         159.000
  18661559.856   -13369502.72049 -10397182.19248  18661559.471    18661564.459
       243.000         217.000
  21396027.366   -18172697.22449 -13431632.87946  21396028.508    21396033.046
       224.000         167.000
 98  1 23 23 41 29.9940000  0  7G15G27G26G 2G 9G 7G 4
  22508362.191    -6501853.54349  -4802929.21145  22508362.975    22508368.293
       214.000         144.000
  20481043.755     1238998.12649    970996.40346  20481043.848    20481049.777
       228.000         181.000
  21345159.590   -11486646.29649  -8937473.09846  21345159.484    21345165.359
       227.000         176.000
  19770647.981    -7825671.28749  -6077719.98647  19770647.546    19770652.730
       242.000         208.000
  21897696.442   -11702206.01549  -8731399.20545  21897695.571    21897703.145
       218.000         160.000
  18657341.801   -13391668.62849 -10414454.32148  18657341.151    18657346.230
       244.000         217.000
  21369193.985   -18313707.54149 -13541510.99746  21369193.785    21369199.078
       221.000         167.000
 98  1 23 23 41 59.9940000  0  7G15G27G26G 2G 9G 7G 4
  22512974.547    -6477615.22949  -4784042.32545  22512975.252    22512980.970
       212.000         143.000
  20491248.687     1292625.44249   1012783.87846  20491248.664    20491254.165
       227.000         181.000
  21344000.430   -11492738.25149  -8942220.09046  21344000.426    21344006.694
       227.000         176.000
  19767031.750    -7844674.89149  -6092527.99647  19767031.299    19767036.756
       243.000         208.000
  21871956.685   -11837469.32849  -8836799.14345  21871955.990    21871962.326
       217.000         161.000
  18653201.657   -13413425.21149 -10431407.49848  18653201.257    18653206.309
       244.000         217.000
  21342392.361   -18454550.90349 -13651259.05346  21342392.489    21342397.871
       222.000         167.000
 98  1 23 23 42 29.9940000  0  7G15G27G26G 2G 9G 7G 4
  22517684.812    -6452863.55549  -4764755.23345  22517683.642    22517691.960
       211.000         143.000
  20501524.204     1346623.66649   1054860.37846  20501524.440    20501529.449
       226.000         180.000
  21342932.440   -11498350.88649  -8946593.61146  21342932.056    21342938.393
       227.000         176.000
  19763461.738    -7863435.42749  -6107146.60047  19763461.340    19763466.539
       242.000         208.000
  21846251.223   -11972552.19549  -8942058.47445  21846250.525    21846257.407
       218.000         161.000
  18649146.800   -13434733.85549 -10448011.63248  18649146.325    18649151.406
       245.000         217.000
  21315628.319   -18595196.68549 -13760853.13546  21315629.447    21315635.188
       224.000         168.000
 98  1 23 23 42 59.9940000  0  7G15G27G26G 2G 9G 7G 4
  22522486.772    -6427628.87149  -4745091.87445  22522485.867    22522492.759
       205.000         144.000
  20511865.253     1400966.02749   1097205.04046  20511865.121    20511870.406
       227.000         180.000
  21341952.155   -11503502.56249  -8950607.92246  21341952.184    21341957.588
       228.000         175.000
  19759933.601    -7881976.03149  -6121593.83047  19759933.173    19759938.500
       243.000         208.000
  21820576.551   -12107473.20049  -9047191.67045  21820575.040    21820581.290
       217.000         162.000
  18645173.115   -13455615.74549 -10464283.23048  18645172.546    18645177.655
       244.000         217.000
  21288895.881   -18735676.47749 -13870317.86446  21288895.424    21288901.633
       224.000         168.000
 98  1 23 23 43 29.9940000  0  7G15G27G26G 2G 9G 7G 4
  22527382.291    -6401902.48349  -4725045.40845  22527383.097    22527388.830
       213.000         145.000
  20522272.791     1455657.84949   1139821.99846  20522273.046    20522278.092
       227.000         179.000
  21341059.890   -11508191.41349  -8954261.59446  21341059.882    21341065.308
       226.000         175.000
  19756447.375    -7900296.17449  -6135869.27147  19756446.916    19756452.067
       243.000         208.000
  21794940.919   -12242189.27149  -9152165.19745  21794940.147    21794946.999
       217.000         162.000
  18641280.406   -13476071.94749 -10480223.12248  18641280.010    18641284.940
       244.000         217.000
  21262197.856   -18875975.37749 -13979641.68246  21262197.827    21262202.898
       220.000         168.000
 98  1 23 23 43 59.9940000  0  7G15G27G26G 2G 9G 7G 4
  22532366.552    -6375710.02349  -4704635.67545  22532367.866    22532372.942
       211.000         143.000
  20532743.179     1510679.70749   1182696.14146  20532743.358    20532748.669
       226.000         179.000
  21340251.747   -11512438.12049  -8957570.73746  21340251.731    21340257.172
       226.000         175.000
  19752997.626    -7918424.76849  -6149995.44947  19752997.354    19753002.504
       242.000         208.000
  21769343.453   -12376704.42449  -9256982.13846  21769344.616    21769348.947
       218.000         163.000
  18637462.690   -13496134.10549 -10495855.96848  18637462.333    18637467.282
       244.000         217.000
  21235528.973   -19016120.96849 -14088846.00646  21235530.748    21235535.582
       223.000         169.000
 98  1 23 23 44 29.9940000  0  7G15G27G26G 2G 9G 7G 4
  22537441.270    -6349042.04849  -4683855.49645  22537439.845    22537447.475
       205.000         142.000
  20543278.319     1566042.19649   1225835.70946  20543278.424    20543283.647
       225.000         178.000
  21339529.778   -11516232.01249  -8960527.04246  21339529.831    21339535.044
       226.000         175.000
  19749584.318    -7936361.90449  -6163972.44647  19749583.888    19749589.196
       243.000         208.000
  21743787.319   -12511002.84649  -9361630.20846  21743788.868    21743792.763
       219.000         163.000
  18633720.371   -13515800.16349 -10511180.16648  18633719.514    18633724.610
       244.000         217.000
  21208892.537   -19156096.45349 -14197917.76646  21208893.199    21208897.728
       225.000         169.000
 98  1 23 23 44 59.9940000  0  7G15G27G26G 2G 9G 7G 4
  22542612.963    -6321864.89349  -4662678.45945  22542611.535    22542619.930
       204.000         143.000
  20553884.119     1621775.98349   1269264.59646  20553884.122    20553889.968
       224.000         178.000
  21338899.329   -11519545.03849  -8963108.64146  21338899.787    21338905.434
       226.000         174.000
  19746215.803    -7954063.69949  -6177766.05947  19746215.390    19746220.619
       242.000         208.000
  21718280.111   -12645044.21749  -9466077.97946  21718280.337    21718285.915
       219.000         163.000
  18630056.675   -13535052.90549 -10526182.30048  18630056.230    18630061.362
       244.000         217.000
  21182297.933   -19295851.90549 -14306818.08146  21182297.800    21182304.237
       224.000         169.000
 98  1 23 23 45 29.9940000  0  7G15G27G26G 2G 9G 7G 4
  22547877.635    -6294198.43549  -4641120.24445  22547878.169    22547883.633
       209.000         144.000
  20564558.488     1677870.22849   1312974.35346  20564558.143    20564563.658
       225.000         178.000
  21338356.530   -11522397.68949  -8965331.50446  21338357.582    21338362.237
       227.000         175.000
  19742887.665    -7971553.06949  -6191394.14347  19742887.274    19742892.196
       242.000         208.000
  21692817.011   -12778853.53549  -9570344.93846  21692818.364    21692822.761
       218.000         163.000
  18626466.920   -13553917.17649 -10540881.72548  18626466.396    18626471.416
       244.000         217.000
  21155744.206   -19435392.82749 -14415551.24346  21155744.133    21155750.145
       222.000         170.000
 98  1 23 23 45 59.9940000  0  7G15G27G26G 2G 9G 7G 4
  22553232.345    -6266058.87449  -4619193.30245  22553231.862    22553240.096
       208.000         142.000
  20575299.513     1734314.62549   1356956.96746  20575299.616    20575304.737
       224.000         177.000
  21337899.610   -11524799.04449  -8967202.70946  21337900.129    21337904.916
       227.000         175.000
  19739599.427    -7988832.76649  -6204858.84947  19739598.850    19739604.343
       242.000         207.000
  21667393.604   -12912454.32149  -9674449.38846  21667395.184    21667399.164
       220.000         164.000
  18622948.121   -13572408.51349 -10555290.55648  18622947.462    18622952.384
       244.000         217.000
  21129231.855   -19574716.10749 -14524114.80546  21129231.537    21129237.297
       224.000         170.000
 98  1 23 23 46 29.9940000  0  7G15G27G26G 2G 9G 7G 4
  22558677.631    -6237444.32649  -4596896.26345  22558676.453    22558682.336
       206.000         141.000
  20586107.062     1791108.49349   1401211.88846  20586107.494    20586112.462
       225.000         177.000
  21337526.044   -11526762.30849  -8968732.53646  21337526.858    21337531.771
       227.000         175.000
  19736352.968    -8005893.02849  -6218152.56847  19736352.697    19736357.955
       242.000         207.000
  21642009.157   -13045849.91249  -9778393.95646  21642010.348    21642015.416
       221.000         164.000
  18619498.444   -13590536.59349 -10569416.32948  18619497.840    18619502.891
       244.000         217.000
  21102764.176   -19713804.38549 -14632495.22946  21102764.000    21102768.914
       225.000         170.000
 98  1 23 23 46 59.9940000  0  7G15G27G26G 2G 9G 7G 4
  22564213.171    -6208355.09849  -4574229.29245  22564212.691    22564220.077
       203.000         143.000
  20596980.457     1848248.55349   1445736.57646  20596980.637    20596986.337
       225.000         176.000
  21337235.857   -11528287.42449  -8969920.95946  21337235.609    21337241.791
       226.000         174.000
  19733148.926    -8022730.45349  -6231272.64147  19733148.516    19733153.639
       242.000         207.000
  21616665.657   -13179030.96749  -9882171.36346  21616666.973    21616671.784
       219.000         165.000
  18616119.115   -13608294.92449 -10583253.98248  18616118.609    18616123.596
       244.000         217.000
  21076342.259   -19852652.20549 -14740688.29846  21076342.062    21076346.874
       225.000         170.000
 98  1 23 23 47 29.9940000  0  7G15G27G26G 2G 9G 7G 4
  22569842.291    -6178773.57549  -4551178.80045  22569841.984    22569849.099
       209.000         142.000
  20607922.848     1905750.89349   1490543.55246  20607922.972    20607928.077
       225.000         176.000
  21337031.074   -11529363.45849  -8970759.44046  21337031.750    21337036.237
       226.000         174.000
  19729989.300    -8039334.55349  -6244210.90647  19729988.643    19729994.089
       242.000         207.000
  21591366.106   -13311980.92549  -9985768.69946  21591366.378    21591371.475
       217.000         165.000
  18612814.718   -13625659.69249 -10596784.96448  18612814.327    18612819.437
       244.000         217.000
  21049971.585   -19991231.08649 -14848671.79746  21049972.287    21049977.395
       225.000         171.000
 98  1 23 23 47 59.9940000  0  7G15G27G26G 2G 9G 7G 4
  22575561.742    -6148718.31049  -4527759.08845  22575560.675    22575568.761
       201.000         140.000
  20618928.025     1963583.52749   1535607.89646  20618927.903    20618933.537
       224.000         175.000
  21336906.762   -11530016.76149  -8971268.53246  21336907.037    21336911.962
       226.000         173.000
  19726870.545    -8055723.68249  -6256981.66347  19726870.052    19726875.495
       242.000         207.000
  21566108.118   -13444712.21149 -10089195.62346  21566107.245    21566112.603
       217.000         165.000
  18609580.162   -13642657.59349 -10610030.07848  18609579.686    18609584.692
       244.000         217.000
  21023647.988   -20129562.17749 -14956462.21546  21023649.071    21023652.872
       225.000         171.000
 98  1 23 23 48 29.9940000  0  7G15G27G26G 2G 9G 7G 4
  22581365.648    -6118218.56349  -4503993.06745  22581366.036    22581369.722
       205.000         141.000
  20629987.659     2021702.11149   1580895.05846  20629987.547    20629992.929
       225.000         175.000
  21336855.203   -11530287.28949  -8971479.34746  21336855.442    21336861.291
       226.000         173.000
  19723785.693    -8071934.67949  -6269613.61647  19723785.278    19723790.268
       242.000         207.000
  21540885.749   -13577256.63449 -10192476.92746  21540884.416    21540891.345
       220.000         165.000
  18606412.576   -13659303.37349 -10623000.81148  18606412.019    18606416.898
       244.000         217.000
  20997364.873   -20267680.85149 -15064087.11046  20997365.456    20997370.389
       226.000         172.000
 98  1 23 23 48 59.9940000  0  7G15G27G26G 2G 9G 7G 4
  22587261.514    -6087235.99049  -4479850.75445  22587260.315    22587269.648
       201.000         138.000
  20641110.251     2080151.60349   1626440.07846  20641110.417    20641115.782
       225.000         174.000
  21336885.787   -11530126.77249  -8971354.29146  21336886.381    21336891.490
       226.000         173.000
  19720741.299    -8087932.97749  -6282079.83047  19720740.885    19720746.213
       242.000         207.000
  21515707.386   -13709569.04349 -10295577.45946  21515707.516    21515712.912
       223.000         166.000
  18603322.790   -13675540.34349 -10635652.99248  18603322.448    18603327.478
       244.000         217.000
  20971130.105   -20405545.30949 -15171513.92046  20971131.488    20971135.490
       225.000         172.000
 98  1 23 23 49 29.9940000  0  6G27G26G 2G 9G 7G 4
  20652296.458     2138935.01849   1672245.29046  20652296.273    20652302.043
       224.000         174.000
  21336998.518   -11529534.52149  -8970892.81446  21336999.463    21337003.881
       226.000         173.000
  19717737.420    -8103718.54049  -6294380.27647  19717736.815    19717742.341
       242.000         207.000
  21490572.526   -13841653.13749 -10398500.08546  21490572.616    21490577.392
       223.000         167.000
  18600309.052   -13691377.64349 -10647993.73648  18600308.454    18600313.541
       244.000         217.000
  20944944.039   -20543153.74849 -15278741.21346  20944944.467    20944949.623
       225.000         173.000
 98  1 23 23 49 59.9940000  0  6G27G26G 2G 9G 7G 4
  20663539.174     2198015.58149   1718282.05146  20663539.269    20663544.536
       224.000         174.000
  21337186.642   -11528545.80649  -8970122.41546  21337186.683    21337192.387
       226.000         173.000
  19714770.124    -8119311.82049  -6306530.88647  19714769.769    19714774.938
       242.000         207.000
  21465477.309   -13973529.46449 -10501260.81746  21465477.829    21465483.434
       222.000         167.000
  18597368.146   -13706832.22049 -10660036.26448  18597367.670    18597372.661
       244.000         217.000
  20918797.818   -20680552.72049 -15385805.30646  20918797.888    20918804.153
       226.000         173.000
 98  1 23 23 50 29.9940000  0  6G27G26G 2G 9G 7G 4
  20674839.425     2257398.53649   1764554.44546  20674839.077    20674845.165
       224.000         173.000
  21337452.594   -11527148.12749  -8969033.33146  21337453.139    21337459.025
       227.000         173.000
  19711841.305    -8134703.10149  -6318524.09747  19711841.036    19711846.268
       242.000         207.000
  21440422.984   -14105190.83249 -10603854.05546  21440423.184    21440426.921
       222.000         167.000
  18594502.658   -13721890.37449 -10671769.88648  18594502.104    18594506.954
       244.000         217.000
  20892692.402   -20817737.34649 -15492702.36846  20892692.620    20892697.941
       225.000         174.000
 98  1 23 23 50 59.9940000  0  6G27G26G 2G 9G 7G 4
  20686199.998     2317098.46549   1811073.83446  20686200.162    20686205.810
       223.000         173.000
  21337800.418   -11525320.51049  -8967609.23946  21337800.478    21337806.261
       226.000         172.000
  19708952.137    -8149885.74749  -6330354.73347  19708951.667    19708956.945
       242.000         207.000
  21415413.325   -14236617.69549 -10706264.55246  21415413.148    21415418.127
       221.000         167.000
  18591707.188   -13736580.38049 -10683216.64248  18591706.659    18591711.808
       244.000         217.000
  20866628.873   -20954702.10949 -15599428.10546  20866628.813    20866634.353
       226.000         174.000
 98  1 23 23 51 29.9940000  0  6G27G26G 2G 9G 7G 4
  20697614.085     2377079.72049   1857812.42846  20697614.280    20697619.299
       224.000         173.000
  21338226.276   -11523082.86649  -8965865.63946  21338226.603    21338231.719
       226.000         172.000
  19706101.572    -8164865.65049  -6342027.38847  19706101.090    19706106.449
       242.000         206.000
  21390443.464   -14367835.28649 -10808511.99146  21390443.434    21390449.927
       221.000         168.000
  18588977.536   -13750924.80849 -10694394.11648  18588977.019    18588982.009
       244.000         217.000
  20840602.465   -21091471.71449 -15706001.76446  20840602.661    20840607.842
       226.000         175.000
 98  1 23 23 51 59.9930000  0  6G27G26G 2G 9G 7G 4
  20709076.601     2437315.50749   1904749.36646  20709076.934    20709081.514
       224.000         173.000
  21338725.303   -11520460.63749  -8963822.37146  21338725.967    21338730.933
       225.000         172.000
  19703285.770    -8179662.85349  -6353557.67847  19703285.439    19703290.491
       242.000         206.000
  21365510.661   -14498857.95549 -10910607.52646  21365509.306    21365515.620
       219.000         168.000
  18586311.103   -13764937.23749 -10705312.88548  18586310.605    18586315.656
       245.000         217.000
  20814609.407   -21228065.93449 -15812438.75746  20814608.856    20814614.641
       226.000         175.000
 98  1 23 23 52 29.9930000  0  6G27G26G 2G 9G 7G 4
  20720598.394     2497862.60149   1951928.86846  20720598.228    20720603.742
       223.000         172.000
  21339306.507   -11517406.41849  -8961442.48446  21339307.775    21339311.873
       225.000         172.000
  19700510.979    -8194244.47749  -6364919.98547  19700510.440    19700516.095
       242.000         206.000
  21340620.426   -14629657.15949 -11012528.91846  21340619.157    21340626.357
       222.000         168.000
  18583712.133   -13778594.80749 -10715955.14848  18583711.914    18583716.848
       245.000         216.000
  20788658.691   -21364437.84849 -15918702.51946  20788658.911    20788663.298
       226.000         176.000
 98  1 23 23 52 59.9930000  0  6G27G26G 2G 9G 7G 4
  20732180.923     2558729.06949   1999357.25146  20732180.590    20732186.615
       223.000         172.000
  21339968.877   -11513925.79949  -8958730.33746  21339969.267    21339974.060
       225.000         171.000
  19697777.219    -8208610.54249  -6376114.32647  19697776.603    19697782.079
       241.000         206.000
  21315773.179   -14760229.78849 -11114273.78846  21315773.407    21315778.210
       224.000         168.000
  18581182.367   -13791889.01649 -10726314.27348  18581181.696    18581186.968
       246.000         216.000
  20762754.062   -21500567.58349 -16024777.56746  20762754.054    20762759.214
       226.000         176.000
 98  1 23 23 53 29.9930000  0  6G27G26G 2G 9G 7G 4
  20743823.877     2619913.26449   2047033.21646  20743823.480    20743829.348
       222.000         172.000
  21340709.589   -11510033.48349  -8955697.38446  21340709.664    21340715.360
       225.000         171.000
  19695085.559    -8222755.09749  -6387136.05947  19695085.036    19695090.253
       242.000         206.000
  21290969.565   -14890573.48449 -11215840.25546  21290969.988    21290973.520
       223.000         168.000
  18578727.139   -13804791.32449 -10736368.01748  18578726.635    18578731.659
       246.000         216.000
  20736898.074   -21636441.46949 -16130653.25046  20736898.034    20736902.818
       227.000         177.000
 98  1 23 23 53 59.9930000  0  6G27G26G 2G 9G 7G 4
  20755524.130     2681398.12449   2094943.44546  20755524.439    20755530.019
       224.000         172.000
  21341523.239   -11505757.91949  -8952365.80546  21341524.170    21341528.660
       225.000         171.000
  19692428.474    -8236718.24649  -6398016.44347  19692428.096    19692433.542
       241.000         206.000
  21266209.597   -15020687.63749 -11317227.84246  21266209.829    21266214.965
       224.000         169.000
  18576340.359   -13817334.02649 -10746141.55148  18576339.778    18576344.859
       246.000         216.000
  20711089.854   -21772064.18149 -16236333.21346  20711090.311    20711096.040
       227.000         177.000
 98  1 23 23 54 29.9930000  0  6G27G26G 2G 9G 7G 4
  20767278.559     2743168.20549   2143075.92646  20767279.032    20767284.480
       222.000         171.000
  21342407.590   -11501110.57849  -8948744.51346  21342407.689    21342413.998
       225.000         171.000
  19689804.838    -8250505.43049  -6408759.71047  19689804.432    19689809.955
       241.000         205.000
  21241494.067   -15150568.29649 -11418433.53546  21241494.399    21241500.058
       223.000         169.000
  18574018.731   -13829534.22049 -10755648.19648  18574018.185    18574023.279
       245.000         216.000
  20685329.175   -21907437.21349 -16341818.63146  20685329.594    20685334.725
       227.000         177.000
 98  1 23 23 54 59.9930000  0  6G27G26G 2G 9G 7G 4
  20779092.306     2805249.67449   2191451.05346  20779092.504    20779097.977
       221.000         171.000
  21343369.221   -11496057.25049  -8944806.87746  21343369.093    21343374.940
       224.000         171.000
  19687224.597    -8264064.80749  -6419325.46547  19687224.178    19687229.554
       241.000         205.000
  21216833.726   -15280158.87149 -11519413.15746  21216833.892    21216838.957
       224.000         169.000
  18571769.332   -13841354.61649 -10764858.89548  18571768.842    18571774.084
       245.000         216.000
  20659624.186   -22042517.40149 -16447075.85246  20659624.400    20659629.696
       227.000         177.000
 98  1 23 23 55 29.9930000  0  6G27G26G 2G 9G 7G 4
  20790955.895     2867592.78849   2240030.06546  20790955.081    20790961.522
       220.000         171.000
  21344399.936   -11490641.02249  -8940586.46146  21344400.559    21344405.800
       226.000         171.000
  19684682.032    -8277426.20149  -6429736.94647  19684681.638    19684687.193
       241.000         205.000
  21192224.122   -15409483.61549 -11620185.62846  21192223.629    21192229.276
       221.000         170.000
  18569583.111   -13852843.34449 -10773811.15048  18569582.845    18569587.830
       246.000         216.000
  20633966.818   -22177347.26449 -16552138.00946  20633966.902    20633972.147
       227.000         178.000
 98  1 23 23 55 59.9930000  0  6G27G26G 2G 9G 7G 4
  20802867.697     2930189.38849   2288806.59546  20802868.174    20802872.969
       223.000         170.000
  21345499.354   -11484863.81449  -8936084.76946  21345499.478    21345505.274
       224.000         171.000
  19682177.453    -8290587.80249  -6439992.74847  19682177.202    19682182.231
       242.000         205.000
  21167662.482   -15538555.79149 -11720761.28746  21167662.382    21167668.104
       223.000         170.000
  18567456.944   -13864016.45149 -10782517.46848  18567456.537    18567461.637
       246.000         216.000
  20608355.060   -22311937.52149 -16657013.47646  20608355.302    20608360.919
       227.000         178.000
 98  1 23 23 56 29.9930000  0  6G27G26G 2G 9G 7G 4
  20814848.350     2993148.19949   2337865.35946  20814848.360    20814854.147
       221.000         170.000
  21346687.319   -11478620.79049  -8931220.09046  21346688.245    21346693.361
       224.000         170.000
  19679735.389    -8303421.10049  -6449992.72547  19679734.883    19679740.277
       241.000         205.000
  21143164.943   -15667290.85549 -11821074.28946  21143165.681    21143169.967
       225.000         171.000
  18565412.248   -13874761.37949 -10790890.14048  18565411.773    18565416.754
       246.000         216.000
  20582809.761   -22446178.86749 -16761617.07746  20582810.617    20582815.556
       229.000         179.000
 98  1 23 23 56 59.9930000  0  6G27G26G 2G 9G 7G 4
  20826876.921     3056358.55649   2387120.14146  20826876.214    20826882.486
       219.000         170.000
  21347943.004   -11472022.29149  -8926078.42846  21347942.967    21347949.331
       224.000         170.000
  19677334.289    -8316039.10349  -6459824.94647  19677334.085    19677339.069
       241.000         205.000
  21118706.425   -15795821.13449 -11921227.70746  21118706.903    21118711.273
       222.000         171.000
  18563428.678   -13885184.96549 -10799012.41648  18563428.196    18563433.369
       246.000         216.000
  20557311.565   -22580172.80349 -16866027.88446  20557311.469    20557316.678
       229.000         179.000
 98  1 23 23 57 29.9930000  0  6G27G26G 2G 9G 7G 4
  20838955.859     3119834.13749   2436581.58446  20838955.721    20838961.250
       220.000         170.000
  21349267.203   -11465063.57749  -8920656.07346  21349267.120    21349274.098
       225.000         170.000
  19674973.244    -8328446.33249  -6469492.92447  19674972.680    19674978.149
       241.000         205.000
  21094283.601   -15924163.39149 -12021234.60746  21094284.011    21094288.589
       224.000         171.000
  18561508.283   -13895276.77749 -10806876.16648  18561507.756    18561512.884
       246.000         216.000
  20531862.330   -22713909.12749 -16970237.98146  20531862.747    20531868.115
       228.000         179.000
 98  1 23 23 57 59.9930000  0  6G27G26G 2G 9G 7G 4
  20851084.417     3183570.34349   2486246.12046  20851085.174    20851091.284
       222.000         169.000
  21350656.096   -11457764.95349  -8914968.86046  21350656.328    21350662.149
       224.000         170.000
  19672649.528    -8340657.52849  -6479008.15147  19672649.258    19672654.480
       241.000         204.000
  21069893.632   -16052333.60449 -12121107.46346  21069893.706    21069898.759
       222.000         172.000
  18559648.788   -13905048.53749 -10814490.52748  18559648.473    18559653.466
       245.000         216.000
  20506462.096   -22847388.14749 -17074247.56946  20506462.711    20506466.838
       228.000         180.000
 98  1 23 23 58 29.9930000  0  6G27G26G 2G 9G 7G 4
  20863265.886     3247584.32649   2536127.09146  20863266.491    20863272.715
       221.000         169.000
  21352112.088   -11450114.03749  -8909007.12946  21352112.840    21352118.319
       224.000         170.000
  19670364.184    -8352667.09449  -6488366.26047  19670363.880    19670368.975
       241.000         204.000
  21045543.026   -16180296.61049 -12220818.83846  21045542.764    21045548.517
       224.000         172.000
  18557851.578   -13914493.15549 -10821849.96848  18557851.187    18557856.186
       245.000         216.000
  20481115.320   -22980586.10149 -17178038.15546  20481115.559    20481120.652
       228.000         180.000
